Observation data for Happy on 05/25/2019      Previous  Date  Next       Current Mesonet Observations  Soil Data  Daily Summary Page  Observations in Plain Language
KHA2 250500Z 18008KT 17/11 A2998 RMK A01 T01690112  RH  069%=      5-min Rain = 0
KHA2 250501Z 18009KT 17/11 A2998 RMK A01 T01690113  RH  069%=      5-min Rain = 0
KHA2 250502Z 18009KT 17/11 A2998 RMK A01 T01690114  RH  070%=      5-min Rain = 0
KHA2 250503Z 18009KT 17/11 A2998 RMK A01 T01680114  RH  071%=      5-min Rain = 0
KHA2 250504Z 18008KT 17/12 A2998 RMK A01 T01670115  RH  071%=      5-min Rain = 0
KHA2 250505Z 17008KT 17/12 A2998 RMK A01 T01660115  RH  072%=      5-min Rain = 0
KHA2 250506Z 17008KT 17/12 A2998 RMK A01 T01650116  RH  073%=      5-min Rain = 0
KHA2 250507Z 17008KT 17/12 A2998 RMK A01 T01650117  RH  073%=      5-min Rain = 0
KHA2 250508Z 17008KT 17/12 A2998 RMK A01 T01650118  RH  074%=      5-min Rain = 0
KHA2 250509Z 17008KT 16/12 A2998 RMK A01 T01640118  RH  074%=      5-min Rain = 0
KHA2 250510Z 17008KT 16/12 A2998 RMK A01 T01640118  RH  074%=      5-min Rain = 0
KHA2 250511Z 17008KT 16/12 A2998 RMK A01 T01640118  RH  074%=      5-min Rain = 0
KHA2 250512Z 18008KT 16/12 A2998 RMK A01 T01640118  RH  074%=      5-min Rain = 0
KHA2 250513Z 17009KT 16/12 A2998 RMK A01 T01640118  RH  074%=      5-min Rain = 0
KHA2 250514Z 18008KT 16/12 A2998 RMK A01 T01640118  RH  074%=      5-min Rain = 0
KHA2 250515Z 17009KT 17/12 A2998 RMK A01 T01650119  RH  074%=      5-min Rain = 0
KHA2 250516Z 17009KT 17/12 A2998 RMK A01 T01650119  RH  074%=      5-min Rain = 0
KHA2 250517Z 17009KT 17/12 A2998 RMK A01 T01660120  RH  074%=      5-min Rain = 0
KHA2 250518Z 17009KT 17/12 A2998 RMK A01 T01660120  RH  074%=      5-min Rain = 0
KHA2 250519Z 17009KT 17/12 A2998 RMK A01 T01670122  RH  074%=      5-min Rain = 0
KHA2 250520Z 17009KT 17/12 A2998 RMK A01 T01680122  RH  074%=      5-min Rain = 0
KHA2 250521Z 17009KT 17/12 A2998 RMK A01 T01680123  RH  075%=      5-min Rain = 0
KHA2 250522Z 18009KT 17/12 A2998 RMK A01 T01680124  RH  075%=      5-min Rain = 0
KHA2 250523Z 18009KT 17/12 A2998 RMK A01 T01680124  RH  075%=      5-min Rain = 0
KHA2 250524Z 18008KT 17/13 A2998 RMK A01 T01690125  RH  075%=      5-min Rain = 0
KHA2 250525Z 18010KT 17/13 A2999 RMK A01 T01690126  RH  076%=      5-min Rain = 0
KHA2 250526Z 18009KT 17/13 A2999 RMK A01 T01700128  RH  076%=      5-min Rain = 0
KHA2 250527Z 18009KT 17/13 A2999 RMK A01 T01710129  RH  076%=      5-min Rain = 0
KHA2 250528Z 18010KT 17/13 A2998 RMK A01 T01720130  RH  076%=      5-min Rain = 0
KHA2 250529Z 18011KT 17/13 A2998 RMK A01 T01740131  RH  076%=      5-min Rain = 0
KHA2 250530Z 18010KT 18/13 A2998 RMK A01 T01760132  RH  076%=      5-min Rain = 0
KHA2 250531Z 18010KT 18/13 A2998 RMK A01 T01770132  RH  075%=      5-min Rain = 0
KHA2 250532Z 18011KT 18/13 A2998 RMK A01 T01770132  RH  075%=      5-min Rain = 0
KHA2 250533Z 18012KT 18/13 A2998 RMK A01 T01770133  RH  075%=      5-min Rain = 0
KHA2 250534Z 18012KT 18/13 A2998 RMK A01 T01780134  RH  075%=      5-min Rain = 0
KHA2 250535Z 18012KT 18/13 A2998 RMK A01 T01790134  RH  075%=      5-min Rain = 0
KHA2 250536Z 18011KT 18/14 A2998 RMK A01 T01790135  RH  075%=      5-min Rain = 0
KHA2 250537Z 18012KT 18/14 A2998 RMK A01 T01800136  RH  075%=      5-min Rain = 0
KHA2 250538Z 18012KT 18/14 A2998 RMK A01 T01800136  RH  075%=      5-min Rain = 0
KHA2 250539Z 18013KT 18/14 A2998 RMK A01 T01820137  RH  075%=      5-min Rain = 0
KHA2 250540Z 18013KT 18/14 A2998 RMK A01 T01820137  RH  075%=      5-min Rain = 0
KHA2 250541Z 18012KT 18/14 A2998 RMK A01 T01820138  RH  075%=      5-min Rain = 0
KHA2 250542Z 18012KT 18/14 A2998 RMK A01 T01820138  RH  075%=      5-min Rain = 0
KHA2 250543Z 18013KT 18/14 A2998 RMK A01 T01820138  RH  076%=      5-min Rain = 0
KHA2 250544Z 18013KT 18/14 A2998 RMK A01 T01820138  RH  076%=      5-min Rain = 0
KHA2 250545Z 18013KT 18/14 A2998 RMK A01 T01820138  RH  076%=      5-min Rain = 0
KHA2 250546Z 17013KT 18/14 A2999 RMK A01 T01820138  RH  076%=      5-min Rain = 0
KHA2 250547Z 18013KT 18/14 A2999 RMK A01 T01820139  RH  076%=      5-min Rain = 0
KHA2 250548Z 17013KT 18/14 A2999 RMK A01 T01820139  RH  076%=      5-min Rain = 0
KHA2 250549Z 17013KT 18/14 A2999 RMK A01 T01820139  RH  076%=      5-min Rain = 0
KHA2 250550Z 17013KT 18/14 A2999 RMK A01 T01830139  RH  076%=      5-min Rain = 0
KHA2 250551Z 17013KT 18/14 A2999 RMK A01 T01830139  RH  076%=      5-min Rain = 0
KHA2 250552Z 17012KT 18/14 A2999 RMK A01 T01830139  RH  076%=      5-min Rain = 0
KHA2 250553Z 17012KT 18/14 A2999 RMK A01 T01830140  RH  076%=      5-min Rain = 0
KHA2 250554Z 17012KT 18/14 A2999 RMK A01 T01830140  RH  076%=      5-min Rain = 0
KHA2 250555Z 17013KT 18/14 A2999 RMK A01 T01830140  RH  076%=      5-min Rain = 0
KHA2 250556Z 17011KT 18/14 A2999 RMK A01 T01830141  RH  076%=      5-min Rain = 0
KHA2 250557Z 17012KT 18/14 A2999 RMK A01 T01830142  RH  077%=      5-min Rain = 0
KHA2 250558Z 17013KT 18/14 A2999 RMK A01 T01830142  RH  077%=      5-min Rain = 0
KHA2 250559Z 17012KT 18/14 A2999 RMK A01 T01830143  RH  078%=      5-min Rain = 0
KHA2 250600Z 17011KT 18/14 A2999 RMK A01 T01830143  RH  078%=      5-min Rain = 0
KHA2 250601Z 17014KT 18/14 A2999 RMK A01 T01820144  RH  078%=      5-min Rain = 0
KHA2 250602Z 17014KT 18/15 A2999 RMK A01 T01820146  RH  079%=      5-min Rain = 0
KHA2 250603Z 17011KT 18/15 A2999 RMK A01 T01830147  RH  079%=      5-min Rain = 0
KHA2 250604Z 17012KT 18/15 A2999 RMK A01 T01830147  RH  079%=      5-min Rain = 0
KHA2 250605Z 17011KT 18/15 A2999 RMK A01 T01830148  RH  080%=      5-min Rain = 0
KHA2 250606Z 17012KT 18/15 A2998 RMK A01 T01830149  RH  081%=      5-min Rain = 0
KHA2 250607Z 17012KT 18/15 A2998 RMK A01 T01820149  RH  081%=      5-min Rain = 0
KHA2 250608Z 17011KT 18/15 A2998 RMK A01 T01820149  RH  081%=      5-min Rain = 0
KHA2 250609Z 17012KT 18/15 A2998 RMK A01 T01820151  RH  082%=      5-min Rain = 0
KHA2 250610Z 17011KT 18/15 A2998 RMK A01 T01820151  RH  082%=      5-min Rain = 0
KHA2 250611Z 17010KT 18/15 A2998 RMK A01 T01820151  RH  082%=      5-min Rain = 0
KHA2 250612Z 17011KT 18/15 A2998 RMK A01 T01820152  RH  083%=      5-min Rain = 0
KHA2 250613Z 17011KT 18/15 A2998 RMK A01 T01820154  RH  084%=      5-min Rain = 0
KHA2 250614Z 17011KT 18/15 A2998 RMK A01 T01810153  RH  084%=      5-min Rain = 0
KHA2 250615Z 17012KT 18/16 A2998 RMK A01 T01820155  RH  084%=      5-min Rain = 0
KHA2 250616Z 17012KT 18/16 A2998 RMK A01 T01820155  RH  084%=      5-min Rain = 0
KHA2 250617Z 17012KT 18/16 A2998 RMK A01 T01830156  RH  084%=      5-min Rain = 0
KHA2 250618Z 16012KT 18/16 A2999 RMK A01 T01830157  RH  084%=      5-min Rain = 0
KHA2 250619Z 16012KT 18/16 A2999 RMK A01 T01830157  RH  085%=      5-min Rain = 0
KHA2 250620Z 16012KT 18/16 A2999 RMK A01 T01830158  RH  085%=      5-min Rain = 0
KHA2 250621Z 16012KT 18/16 A2998 RMK A01 T01830159  RH  085%=      5-min Rain = 0
KHA2 250622Z 16013KT 18/16 A2998 RMK A01 T01840159  RH  086%=      5-min Rain = 0
KHA2 250623Z 16012KT 18/16 A2999 RMK A01 T01840160  RH  086%=      5-min Rain = 0
KHA2 250624Z 17012KT 18/16 A2999 RMK A01 T01840160  RH  086%=      5-min Rain = 0
KHA2 250625Z 17012KT 18/16 A2999 RMK A01 T01840161  RH  086%=      5-min Rain = 0
KHA2 250626Z 17012KT 18/16 A2999 RMK A01 T01840161  RH  086%=      5-min Rain = 0
KHA2 250627Z 17010KT 18/16 A2999 RMK A01 T01840161  RH  086%=      5-min Rain = 0
KHA2 250628Z 17012KT 18/16 A2999 RMK A01 T01840161  RH  087%=      5-min Rain = 0
KHA2 250629Z 16011KT 18/16 A2999 RMK A01 T01840161  RH  087%=      5-min Rain = 0
KHA2 250630Z 16011KT 18/16 A2999 RMK A01 T01830161  RH  087%=      5-min Rain = 0
KHA2 250631Z 16013KT 18/16 A2999 RMK A01 T01830162  RH  088%=      5-min Rain = 0
KHA2 250632Z 16012KT 18/16 A2999 RMK A01 T01830163  RH  088%=      5-min Rain = 0
KHA2 250633Z 16012KT 18/16 A2999 RMK A01 T01830163  RH  088%=      5-min Rain = 0
KHA2 250634Z 16012KT 18/16 A2999 RMK A01 T01830163  RH  088%=      5-min Rain = 0
KHA2 250635Z 16011G16KT 18/16 A2999 RMK A01 T01840163  RH  088%=      5-min Rain = 0
KHA2 250636Z 16013KT 18/16 A2999 RMK A01 T01840163  RH  088%=      5-min Rain = 0
KHA2 250637Z 16012KT 18/16 A2999 RMK A01 T01840164  RH  088%=      5-min Rain = 0
KHA2 250638Z 16013KT 18/16 A2999 RMK A01 T01840164  RH  088%=      5-min Rain = 0
KHA2 250639Z 16013KT 18/16 A2999 RMK A01 T01840164  RH  088%=      5-min Rain = 0
KHA2 250640Z 16013KT 18/16 A2999 RMK A01 T01830164  RH  088%=      5-min Rain = 0
KHA2 250641Z 16011KT 18/16 A2999 RMK A01 T01840164  RH  088%=      5-min Rain = 0
KHA2 250642Z 16012KT 18/16 A2999 RMK A01 T01830164  RH  089%=      5-min Rain = 0
KHA2 250643Z 17011KT 18/17 A2999 RMK A01 T01830165  RH  089%=      5-min Rain = 0
KHA2 250644Z 16012KT 18/16 A2999 RMK A01 T01830164  RH  089%=      5-min Rain = 0
KHA2 250645Z 16013KT 18/17 A2999 RMK A01 T01830165  RH  089%=      5-min Rain = 0
KHA2 250646Z 16014KT 18/17 A2999 RMK A01 T01830165  RH  089%=      5-min Rain = 0
KHA2 250647Z 16012KT 18/17 A2999 RMK A01 T01830165  RH  089%=      5-min Rain = 0
KHA2 250648Z 16012KT 18/17 A2999 RMK A01 T01830165  RH  089%=      5-min Rain = 0
KHA2 250649Z 16012KT 18/17 A2999 RMK A01 T01830165  RH  089%=      5-min Rain = 0
KHA2 250650Z 16012KT 18/17 A2999 RMK A01 T01820165  RH  090%=      5-min Rain = 0
KHA2 250651Z 16013KT 18/17 A2998 RMK A01 T01820165  RH  090%=      5-min Rain = 0
KHA2 250652Z 16012KT 18/17 A2998 RMK A01 T01820165  RH  090%=      5-min Rain = 0
KHA2 250653Z 16012KT 18/17 A2998 RMK A01 T01820165  RH  090%=      5-min Rain = 0
KHA2 250654Z 16013KT 18/17 A2998 RMK A01 T01820166  RH  090%=      5-min Rain = 0
KHA2 250655Z 15013KT 18/17 A2998 RMK A01 T01820166  RH  090%=      5-min Rain = 0
KHA2 250656Z 16011KT 18/17 A2998 RMK A01 T01810166  RH  091%=      5-min Rain = 0
KHA2 250657Z 16010KT 18/17 A2998 RMK A01 T01810165  RH  091%=      5-min Rain = 0
KHA2 250658Z 16011KT 18/17 A2998 RMK A01 T01800165  RH  091%=      5-min Rain = 0
KHA2 250659Z 17010KT 18/17 A2998 RMK A01 T01800166  RH  091%=      5-min Rain = 0
KHA2 250700Z 16011KT 18/17 A2999 RMK A01 T01800166  RH  091%=      5-min Rain = 0
KHA2 250701Z 17012KT 18/17 A2998 RMK A01 T01790166  RH  092%=      5-min Rain = 0
KHA2 250702Z 16009KT 18/17 A2998 RMK A01 T01790166  RH  092%=      5-min Rain = 0
KHA2 250703Z 16011KT 18/17 A2998 RMK A01 T01790166  RH  092%=      5-min Rain = 0
KHA2 250704Z 16012KT 18/17 A2998 RMK A01 T01790166  RH  092%=      5-min Rain = 0
KHA2 250705Z 16013KT 18/17 A2998 RMK A01 T01800167  RH  092%=      5-min Rain = 0
KHA2 250706Z 16013KT 18/17 A2998 RMK A01 T01810167  RH  092%=      5-min Rain = 0
KHA2 250707Z 16012KT 18/17 A2998 RMK A01 T01810167  RH  092%=      5-min Rain = 0
KHA2 250708Z 16012KT 18/17 A2998 RMK A01 T01810167  RH  091%=      5-min Rain = 0
KHA2 250709Z 16012KT 18/17 A2998 RMK A01 T01810167  RH  091%=      5-min Rain = 0
KHA2 250710Z 16012KT 18/17 A2998 RMK A01 T01810168  RH  092%=      5-min Rain = 0
KHA2 250711Z 16011KT 18/17 A2998 RMK A01 T01810167  RH  091%=      5-min Rain = 0
KHA2 250712Z 16011KT 18/17 A2998 RMK A01 T01810167  RH  091%=      5-min Rain = 0
KHA2 250713Z 16012KT 18/17 A2998 RMK A01 T01810167  RH  092%=      5-min Rain = 0
KHA2 250714Z 16010KT 18/17 A2998 RMK A01 T01810167  RH  092%=      5-min Rain = 0
KHA2 250715Z 16011KT 18/17 A2999 RMK A01 T01810168  RH  092%=      5-min Rain = 0
KHA2 250716Z 16010KT 18/17 A2999 RMK A01 T01810168  RH  092%=      5-min Rain = 0
KHA2 250717Z 16011KT 18/17 A2999 RMK A01 T01810167  RH  092%=      5-min Rain = 0
KHA2 250718Z 16011KT 18/17 A2999 RMK A01 T01810168  RH  092%=      5-min Rain = 0
KHA2 250719Z 16010KT 18/17 A2999 RMK A01 T01820168  RH  092%=      5-min Rain = 0
KHA2 250720Z 15012KT 18/17 A2999 RMK A01 T01820168  RH  092%=      5-min Rain = 0
KHA2 250721Z 15010KT 18/17 A2999 RMK A01 T01820168  RH  092%=      5-min Rain = 0
KHA2 250722Z 15011KT 18/17 A2999 RMK A01 T01820168  RH  091%=      5-min Rain = 0
KHA2 250723Z 16011KT 18/17 A2999 RMK A01 T01820168  RH  091%=      5-min Rain = 0
KHA2 250724Z 15012KT 18/17 A2999 RMK A01 T01820168  RH  091%=      5-min Rain = 0
KHA2 250725Z 16013KT 18/17 A2999 RMK A01 T01820168  RH  091%=      5-min Rain = 0
KHA2 250726Z 16011KT 18/17 A2999 RMK A01 T01830168  RH  091%=      5-min Rain = 0
KHA2 250727Z 17010KT 18/17 A2999 RMK A01 T01830168  RH  091%=      5-min Rain = 0
KHA2 250728Z 16011KT 18/17 A2999 RMK A01 T01830168  RH  091%=      5-min Rain = 0
KHA2 250729Z 16012KT 18/17 A2999 RMK A01 T01830168  RH  091%=      5-min Rain = 0
KHA2 250730Z 16012KT 18/17 A2999 RMK A01 T01830168  RH  091%=      5-min Rain = 0
KHA2 250731Z 16011KT 18/17 A2999 RMK A01 T01830168  RH  091%=      5-min Rain = 0
KHA2 250732Z 16011KT 18/17 A2999 RMK A01 T01830168  RH  091%=      5-min Rain = 0
KHA2 250733Z 16012KT 18/17 A2999 RMK A01 T01830168  RH  091%=      5-min Rain = 0
KHA2 250734Z 16012KT 18/17 A2999 RMK A01 T01820168  RH  091%=      5-min Rain = 0
KHA2 250735Z 15012KT 18/17 A2999 RMK A01 T01830168  RH  091%=      5-min Rain = 0
KHA2 250736Z 15012KT 18/17 A2999 RMK A01 T01820167  RH  091%=      5-min Rain = 0
KHA2 250737Z 15013KT 18/17 A2999 RMK A01 T01820168  RH  091%=      5-min Rain = 0
KHA2 250738Z 15012KT 18/17 A2999 RMK A01 T01820168  RH  091%=      5-min Rain = 0
KHA2 250739Z 15013KT 18/17 A2999 RMK A01 T01820168  RH  091%=      5-min Rain = 0
KHA2 250740Z 15012KT 18/17 A2999 RMK A01 T01820167  RH  091%=      5-min Rain = 0
KHA2 250741Z 15012KT 18/17 A2999 RMK A01 T01820167  RH  091%=      5-min Rain = 0
KHA2 250742Z 15013KT 18/17 A2999 RMK A01 T01820168  RH  091%=      5-min Rain = 0
KHA2 250743Z 15012KT 18/17 A2999 RMK A01 T01810167  RH  091%=      5-min Rain = 0
KHA2 250744Z 15012KT 18/17 A2999 RMK A01 T01810167  RH  091%=      5-min Rain = 0
KHA2 250745Z 15011KT 18/17 A2999 RMK A01 T01810167  RH  091%=      5-min Rain = 0
KHA2 250746Z 15012KT 18/17 A2999 RMK A01 T01810167  RH  092%=      5-min Rain = 0
KHA2 250747Z 15011KT 18/17 A2999 RMK A01 T01810167  RH  091%=      5-min Rain = 0
KHA2 250748Z 15013KT 18/17 A2999 RMK A01 T01810167  RH  092%=      5-min Rain = 0
KHA2 250749Z 15011KT 18/17 A2999 RMK A01 T01810167  RH  092%=      5-min Rain = 0
KHA2 250750Z 15011KT 18/17 A2999 RMK A01 T01800167  RH  092%=      5-min Rain = 0
KHA2 250751Z 15009KT 18/17 A2999 RMK A01 T01800167  RH  092%=      5-min Rain = 0
KHA2 250752Z 15011KT 18/17 A2999 RMK A01 T01800167  RH  092%=      5-min Rain = 0
KHA2 250753Z 15011KT 18/17 A2999 RMK A01 T01800167  RH  092%=      5-min Rain = 0
KHA2 250754Z 15010KT 18/17 A2999 RMK A01 T01800166  RH  092%=      5-min Rain = 0
KHA2 250755Z 15011KT 18/17 A2999 RMK A01 T01800167  RH  092%=      5-min Rain = 0
KHA2 250756Z 15010KT 18/17 A2999 RMK A01 T01800167  RH  092%=      5-min Rain = 0
KHA2 250757Z 15010KT 18/17 A2999 RMK A01 T01800167  RH  092%=      5-min Rain = 0
KHA2 250758Z 14009KT 18/17 A2999 RMK A01 T01790166  RH  092%=      5-min Rain = 0
KHA2 250759Z 14010KT 18/17 A2999 RMK A01 T01800167  RH  092%=      5-min Rain = 0
KHA2 250800Z 15010KT 18/17 A2999 RMK A01 T01800167  RH  092%=      5-min Rain = 0
KHA2 250801Z 14011KT 18/17 A2999 RMK A01 T01790167  RH  092%=      5-min Rain = 0
KHA2 250802Z 14011KT 18/17 A2999 RMK A01 T01790166  RH  092%=      5-min Rain = 0
KHA2 250803Z 15013KT 18/17 A2999 RMK A01 T01790166  RH  092%=      5-min Rain = 0
KHA2 250804Z 15010KT 18/17 A2999 RMK A01 T01790167  RH  092%=      5-min Rain = 0
KHA2 250805Z 15010KT 18/17 A2999 RMK A01 T01790167  RH  092%=      5-min Rain = 0
KHA2 250806Z 15010KT 18/17 A2999 RMK A01 T01790166  RH  093%=      5-min Rain = 0
KHA2 250807Z 15012KT 18/17 A2999 RMK A01 T01790166  RH  093%=      5-min Rain = 0
KHA2 250808Z 15010KT 18/17 A2999 RMK A01 T01790166  RH  093%=      5-min Rain = 0
KHA2 250809Z 15010KT 18/17 A2999 RMK A01 T01790167  RH  093%=      5-min Rain = 0
KHA2 250810Z 15011KT 18/17 A2999 RMK A01 T01780167  RH  093%=      5-min Rain = 0
KHA2 250811Z 16011KT 18/17 A2999 RMK A01 T01790167  RH  093%=      5-min Rain = 0
KHA2 250812Z 15011KT 18/17 A2999 RMK A01 T01780167  RH  093%=      5-min Rain = 0
KHA2 250813Z 15011KT 18/17 A2999 RMK A01 T01790167  RH  093%=      5-min Rain = 0
KHA2 250814Z 15011KT 18/17 A2999 RMK A01 T01790167  RH  093%=      5-min Rain = 0
KHA2 250815Z 15010KT 18/17 A2999 RMK A01 T01780166  RH  093%=      5-min Rain = 0
KHA2 250816Z 15009KT 18/17 A2999 RMK A01 T01780166  RH  093%=      5-min Rain = 0
KHA2 250817Z 15009KT 18/17 A2999 RMK A01 T01780166  RH  093%=      5-min Rain = 0
KHA2 250818Z 15008KT 18/17 A2999 RMK A01 T01780166  RH  093%=      5-min Rain = 0
KHA2 250819Z 15011KT 18/17 A2999 RMK A01 T01780166  RH  093%=      5-min Rain = 0
KHA2 250820Z 15010KT 18/17 A2999 RMK A01 T01780166  RH  093%=      5-min Rain = 0
KHA2 250821Z 16010KT 18/17 A2999 RMK A01 T01780166  RH  093%=      5-min Rain = 0
KHA2 250822Z 15009KT 18/17 A2999 RMK A01 T01780166  RH  093%=      5-min Rain = 0
KHA2 250823Z 15009KT 18/17 A2999 RMK A01 T01780166  RH  093%=      5-min Rain = 0
KHA2 250824Z 15011KT 18/17 A2999 RMK A01 T01780166  RH  093%=      5-min Rain = 0
KHA2 250825Z 15011KT 18/17 A2999 RMK A01 T01780166  RH  093%=      5-min Rain = 0
KHA2 250826Z 15010KT 18/17 A2999 RMK A01 T01780166  RH  093%=      5-min Rain = 0
KHA2 250827Z 15009KT 18/17 A2999 RMK A01 T01780166  RH  093%=      5-min Rain = 0
KHA2 250828Z 15009KT 18/17 A2999 RMK A01 T01780166  RH  093%=      5-min Rain = 0
KHA2 250829Z 15008KT 18/17 A2999 RMK A01 T01780166  RH  093%=      5-min Rain = 0
KHA2 250830Z 15007KT 18/17 A2999 RMK A01 T01770166  RH  093%=      5-min Rain = 0
KHA2 250831Z 15007KT 18/17 A2999 RMK A01 T01770166  RH  093%=      5-min Rain = 0
KHA2 250832Z 15010KT 18/17 A2999 RMK A01 T01770166  RH  093%=      5-min Rain = 0
KHA2 250833Z 16008KT 18/17 A2999 RMK A01 T01780166  RH  093%=      5-min Rain = 0
KHA2 250834Z 15007KT 18/17 A2999 RMK A01 T01780166  RH  093%=      5-min Rain = 0
KHA2 250835Z 15008KT 18/17 A2999 RMK A01 T01770166  RH  093%=      5-min Rain = 0
KHA2 250836Z 16008KT 18/17 A2999 RMK A01 T01780166  RH  093%=      5-min Rain = 0
KHA2 250837Z 16008KT 18/17 A2999 RMK A01 T01780166  RH  093%=      5-min Rain = 0
KHA2 250838Z 16008KT 18/17 A2999 RMK A01 T01780166  RH  093%=      5-min Rain = 0
KHA2 250839Z 16007KT 18/17 A2999 RMK A01 T01770166  RH  093%=      5-min Rain = 0
KHA2 250840Z 15007KT 18/17 A2999 RMK A01 T01780167  RH  093%=      5-min Rain = 0
KHA2 250841Z 15007KT 18/17 A2999 RMK A01 T01770166  RH  093%=      5-min Rain = 0
KHA2 250842Z 16006KT 18/17 A2999 RMK A01 T01780167  RH  093%=      5-min Rain = 0
KHA2 250843Z 16007KT 18/17 A2999 RMK A01 T01780167  RH  093%=      5-min Rain = 0
KHA2 250844Z 15007KT 18/17 A2999 RMK A01 T01780167  RH  093%=      5-min Rain = 0
KHA2 250845Z 16006KT 18/17 A2999 RMK A01 T01780167  RH  093%=      5-min Rain = 0
KHA2 250846Z 16008KT 18/17 A2999 RMK A01 T01780167  RH  093%=      5-min Rain = 0
KHA2 250847Z 15008KT 18/17 A2999 RMK A01 T01780167  RH  093%=      5-min Rain = 0
KHA2 250848Z 16007KT 18/17 A2999 RMK A01 T01780167  RH  093%=      5-min Rain = 0
KHA2 250849Z 15009KT 18/17 A2999 RMK A01 T01780167  RH  093%=      5-min Rain = 0
KHA2 250850Z 15009KT 18/17 A2999 RMK A01 T01780167  RH  093%=      5-min Rain = 0
KHA2 250851Z 16009KT 18/17 A2999 RMK A01 T01770167  RH  093%=      5-min Rain = 0
KHA2 250852Z 15008KT 18/17 A2998 RMK A01 T01780167  RH  093%=      5-min Rain = 0
KHA2 250853Z 15009KT 18/17 A2998 RMK A01 T01780167  RH  093%=      5-min Rain = 0
KHA2 250854Z 15011KT 18/17 A2998 RMK A01 T01780167  RH  093%=      5-min Rain = 0
KHA2 250855Z 15010KT 18/17 A2998 RMK A01 T01780167  RH  093%=      5-min Rain = 0
KHA2 250856Z 16008KT 18/17 A2998 RMK A01 T01780167  RH  093%=      5-min Rain = 0
KHA2 250857Z 16009KT 18/17 A2998 RMK A01 T01780167  RH  093%=      5-min Rain = 0
KHA2 250858Z 15008KT 18/17 A2998 RMK A01 T01780167  RH  094%=      5-min Rain = 0
KHA2 250859Z 16008KT 18/17 A2998 RMK A01 T01780167  RH  094%=      5-min Rain = 0
KHA2 250900Z 16008KT 18/17 A2998 RMK A01 T01780167  RH  094%=      5-min Rain = 0
KHA2 250901Z 15009KT 18/17 A2998 RMK A01 T01780167  RH  094%=      5-min Rain = 0
KHA2 250902Z 16009KT 18/17 A2998 RMK A01 T01770167  RH  094%=      5-min Rain = 0
KHA2 250903Z 16010KT 18/17 A2998 RMK A01 T01780167  RH  094%=      5-min Rain = 0
KHA2 250904Z 15010KT 18/17 A2998 RMK A01 T01770167  RH  094%=      5-min Rain = 0
KHA2 250905Z 15009KT 18/17 A2998 RMK A01 T01780168  RH  094%=      5-min Rain = 0
KHA2 250906Z 16009KT 18/17 A2998 RMK A01 T01780167  RH  094%=      5-min Rain = 0
KHA2 250907Z 16010KT 18/17 A2998 RMK A01 T01780168  RH  094%=      5-min Rain = 0
KHA2 250908Z 16010KT 18/17 A2998 RMK A01 T01780168  RH  094%=      5-min Rain = 0
KHA2 250909Z 16009KT 18/17 A2999 RMK A01 T01780168  RH  094%=      5-min Rain = 0
KHA2 250910Z 15009KT 18/17 A2998 RMK A01 T01780168  RH  094%=      5-min Rain = 0
KHA2 250911Z 15011KT 18/17 A2998 RMK A01 T01780168  RH  094%=      5-min Rain = 0
KHA2 250912Z 16010KT 18/17 A2998 RMK A01 T01780168  RH  094%=      5-min Rain = 0
KHA2 250913Z 16008KT 18/17 A2998 RMK A01 T01780168  RH  094%=      5-min Rain = 0
KHA2 250914Z 15007KT 18/17 A2998 RMK A01 T01770168  RH  094%=      5-min Rain = 0
KHA2 250915Z 15009KT 18/17 A2998 RMK A01 T01780168  RH  094%=      5-min Rain = 0
KHA2 250916Z 15009KT 18/17 A2998 RMK A01 T01780168  RH  094%=      5-min Rain = 0
KHA2 250917Z 16010KT 18/17 A2998 RMK A01 T01780168  RH  094%=      5-min Rain = 0
KHA2 250918Z 15008KT 18/17 A2998 RMK A01 T01780168  RH  094%=      5-min Rain = 0
KHA2 250919Z 15009KT 18/17 A2998 RMK A01 T01780168  RH  094%=      5-min Rain = 0
KHA2 250920Z 15008KT 18/17 A2998 RMK A01 T01780168  RH  094%=      5-min Rain = 0
KHA2 250921Z 16011KT 18/17 A2998 RMK A01 T01770168  RH  094%=      5-min Rain = 0
KHA2 250922Z 16010KT 18/17 A2998 RMK A01 T01780169  RH  094%=      5-min Rain = 0
KHA2 250923Z 16010KT 18/17 A2998 RMK A01 T01780169  RH  094%=      5-min Rain = 0
KHA2 250924Z 16010KT 18/17 A2998 RMK A01 T01780169  RH  094%=      5-min Rain = 0
KHA2 250925Z 15008KT 18/17 A2998 RMK A01 T01780169  RH  094%=      5-min Rain = 0
KHA2 250926Z 15010KT 18/17 A2998 RMK A01 T01780169  RH  094%=      5-min Rain = 0
KHA2 250927Z 16010KT 18/17 A2998 RMK A01 T01780169  RH  094%=      5-min Rain = 0
KHA2 250928Z 15010KT 18/17 A2998 RMK A01 T01780169  RH  094%=      5-min Rain = 0
KHA2 250929Z 15009KT 18/17 A2998 RMK A01 T01780169  RH  094%=      5-min Rain = 0
KHA2 250930Z 16009KT 18/17 A2998 RMK A01 T01780170  RH  094%=      5-min Rain = 0
KHA2 250931Z 16010KT 18/17 A2998 RMK A01 T01790170  RH  095%=      5-min Rain = 0
KHA2 250932Z 16010KT 18/17 A2998 RMK A01 T01780170  RH  094%=      5-min Rain = 0
KHA2 250933Z 16010KT 18/17 A2998 RMK A01 T01790170  RH  095%=      5-min Rain = 0
KHA2 250934Z 15009KT 18/17 A2998 RMK A01 T01780170  RH  095%=      5-min Rain = 0
KHA2 250935Z 15007KT 18/17 A2998 RMK A01 T01790170  RH  095%=      5-min Rain = 0
KHA2 250936Z 16009KT 18/17 A2998 RMK A01 T01790170  RH  095%=      5-min Rain = 0
KHA2 250937Z 16008KT 18/17 A2998 RMK A01 T01790170  RH  095%=      5-min Rain = 0
KHA2 250938Z 16007KT 18/17 A2998 RMK A01 T01790170  RH  095%=      5-min Rain = 0
KHA2 250939Z 17009KT 18/17 A2998 RMK A01 T01790170  RH  095%=      5-min Rain = 0
KHA2 250940Z 17009KT 18/17 A2998 RMK A01 T01790170  RH  095%=      5-min Rain = 0
KHA2 250941Z 16007KT 18/17 A2998 RMK A01 T01790170  RH  095%=      5-min Rain = 0
KHA2 250942Z 16006KT 18/17 A2998 RMK A01 T01790170  RH  095%=      5-min Rain = 0
KHA2 250943Z 16007KT 18/17 A2998 RMK A01 T01790171  RH  095%=      5-min Rain = 0
KHA2 250944Z 17006KT 18/17 A2998 RMK A01 T01790171  RH  095%=      5-min Rain = 0
KHA2 250945Z 16008KT 18/17 A2998 RMK A01 T01790171  RH  095%=      5-min Rain = 0
KHA2 250946Z 16008KT 18/17 A2998 RMK A01 T01800171  RH  095%=      5-min Rain = 0
KHA2 250947Z 15010KT 18/17 A2998 RMK A01 T01800171  RH  095%=      5-min Rain = 0
KHA2 250948Z 15011KT 18/17 A2998 RMK A01 T01790171  RH  095%=      5-min Rain = 0
KHA2 250949Z 16011KT 18/17 A2998 RMK A01 T01790171  RH  095%=      5-min Rain = 0
KHA2 250950Z 16009KT 18/17 A2998 RMK A01 T01790171  RH  095%=      5-min Rain = 0
KHA2 250951Z 16009KT 18/17 A2998 RMK A01 T01790171  RH  095%=      5-min Rain = 0
KHA2 250952Z 16007KT 18/17 A2998 RMK A01 T01790171  RH  095%=      5-min Rain = 0
KHA2 250953Z 16008KT 18/17 A2999 RMK A01 T01790171  RH  095%=      5-min Rain = 0
KHA2 250954Z 16010KT 18/17 A2999 RMK A01 T01790171  RH  095%=      5-min Rain = 0
KHA2 250955Z 16010KT 18/17 A2999 RMK A01 T01790171  RH  095%=      5-min Rain = 0
KHA2 250956Z 16010KT 18/17 A2999 RMK A01 T01800172  RH  095%=      5-min Rain = 0
KHA2 250957Z 16011KT 18/17 A2999 RMK A01 T01790172  RH  095%=      5-min Rain = 0
KHA2 250958Z 16009KT 18/17 A2999 RMK A01 T01800172  RH  095%=      5-min Rain = 0
KHA2 250959Z 16010KT 18/17 A2999 RMK A01 T01800172  RH  095%=      5-min Rain = 0
KHA2 251000Z 15009KT 18/17 A2999 RMK A01 T01800172  RH  095%=      5-min Rain = 0
KHA2 251001Z 16008KT 18/17 A2999 RMK A01 T01800172  RH  095%=      5-min Rain = 0
KHA2 251002Z 16008KT 18/17 A2999 RMK A01 T01790172  RH  095%=      5-min Rain = 0
KHA2 251003Z 15010KT 18/17 A2999 RMK A01 T01790172  RH  095%=      5-min Rain = 0
KHA2 251004Z 16010KT 18/17 A2999 RMK A01 T01800172  RH  095%=      5-min Rain = 0
KHA2 251005Z 16010KT 18/17 A2999 RMK A01 T01790172  RH  095%=      5-min Rain = 0
KHA2 251006Z 15009KT 18/17 A2999 RMK A01 T01790172  RH  095%=      5-min Rain = 0
KHA2 251007Z 15009KT 18/17 A2999 RMK A01 T01790172  RH  095%=      5-min Rain = 0
KHA2 251008Z 15010KT 18/17 A2999 RMK A01 T01790172  RH  095%=      5-min Rain = 0
KHA2 251009Z 15010KT 18/17 A2999 RMK A01 T01790172  RH  095%=      5-min Rain = 0
KHA2 251010Z 15009KT 18/17 A2999 RMK A01 T01790172  RH  095%=      5-min Rain = 0
KHA2 251011Z 16008KT 18/17 A30 RMK A01 T01790172  RH  096%=      5-min Rain = 0
KHA2 251012Z 16007KT 18/17 A30 RMK A01 T01790172  RH  096%=      5-min Rain = 0
KHA2 251013Z 16009KT 18/17 A30 RMK A01 T01790172  RH  096%=      5-min Rain = 0
KHA2 251014Z 15008KT 18/17 A30 RMK A01 T01790172  RH  096%=      5-min Rain = 0
KHA2 251015Z 16009KT 18/17 A30 RMK A01 T01790172  RH  096%=      5-min Rain = 0
KHA2 251016Z 16010KT 18/17 A30 RMK A01 T01790172  RH  096%=      5-min Rain = 0
KHA2 251017Z 16011KT 18/17 A30 RMK A01 T01790172  RH  096%=      5-min Rain = 0
KHA2 251018Z 16010KT 18/17 A30 RMK A01 T01790172  RH  096%=      5-min Rain = 0
KHA2 251019Z 16009KT 18/17 A30 RMK A01 T01790172  RH  096%=      5-min Rain = 0
KHA2 251020Z 15009KT 18/17 A30 RMK A01 T01790172  RH  096%=      5-min Rain = 0
KHA2 251021Z 15009KT 18/17 A30 RMK A01 T01790172  RH  096%=      5-min Rain = 0
KHA2 251022Z 15009KT 18/17 A30 RMK A01 T01790172  RH  096%=      5-min Rain = 0
KHA2 251023Z 15010KT 18/17 A30 RMK A01 T01790172  RH  096%=      5-min Rain = 0
KHA2 251024Z 15009KT 18/17 A30 RMK A01 T01790172  RH  096%=      5-min Rain = 0
KHA2 251025Z 15010KT 18/17 A30 RMK A01 T01790173  RH  096%=      5-min Rain = 0
KHA2 251026Z 15008KT 18/17 A30 RMK A01 T01790173  RH  096%=      5-min Rain = 0
KHA2 251027Z 15009KT 18/17 A30 RMK A01 T01790173  RH  096%=      5-min Rain = 0
KHA2 251028Z 15008KT 18/17 A30 RMK A01 T01790173  RH  096%=      5-min Rain = 0
KHA2 251029Z 15007KT 18/17 A30 RMK A01 T01790173  RH  096%=      5-min Rain = 0
KHA2 251030Z 16008KT 18/17 A30 RMK A01 T01790173  RH  096%=      5-min Rain = 0
KHA2 251031Z 16010KT 18/17 A30 RMK A01 T01790173  RH  096%=      5-min Rain = 0
KHA2 251032Z 16009KT 18/17 A30 RMK A01 T01790173  RH  096%=      5-min Rain = 0
KHA2 251033Z 16007KT 18/17 A30 RMK A01 T01790173  RH  096%=      5-min Rain = 0
KHA2 251034Z 15009KT 18/17 A30 RMK A01 T01790173  RH  096%=      5-min Rain = 0
KHA2 251035Z 16009KT 18/17 A30 RMK A01 T01790173  RH  096%=      5-min Rain = 0
KHA2 251036Z 15009KT 18/17 A30 RMK A01 T01790173  RH  096%=      5-min Rain = 0
KHA2 251037Z 15011KT 18/17 A30 RMK A01 T01790173  RH  097%=      5-min Rain = 0
KHA2 251038Z 15012KT 18/17 A30 RMK A01 T01790173  RH  097%=      5-min Rain = 0
KHA2 251039Z 15010KT 18/17 A30 RMK A01 T01790174  RH  097%=      5-min Rain = 0
KHA2 251040Z 15011KT 18/17 A30 RMK A01 T01790174  RH  097%=      5-min Rain = 0
KHA2 251041Z 15011KT 18/17 A30 RMK A01 T01790174  RH  097%=      5-min Rain = 0
KHA2 251042Z 15012KT 18/17 A30 RMK A01 T01790174  RH  097%=      5-min Rain = 0
KHA2 251043Z 15010KT 18/17 A30 RMK A01 T01790174  RH  097%=      5-min Rain = 0
KHA2 251044Z 15009KT 18/17 A30 RMK A01 T01790174  RH  097%=      5-min Rain = 0
KHA2 251045Z 15008KT 18/17 A30 RMK A01 T01790174  RH  097%=      5-min Rain = 0
KHA2 251046Z 15011KT 18/17 A30 RMK A01 T01790174  RH  097%=      5-min Rain = 0
KHA2 251047Z 14010KT 18/17 A30 RMK A01 T01780174  RH  097%=      5-min Rain = 0
KHA2 251048Z 14011KT 18/17 A30 RMK A01 T01780174  RH  097%=      5-min Rain = 0
KHA2 251049Z 14009KT 18/17 A30 RMK A01 T01790174  RH  097%=      5-min Rain = 0
KHA2 251050Z 15009KT 18/17 A30 RMK A01 T01780174  RH  097%=      5-min Rain = 0
KHA2 251051Z 15009KT 18/18 A30 RMK A01 T01790175  RH  097%=      5-min Rain = 0
KHA2 251052Z 15009KT 18/17 A30 RMK A01 T01790174  RH  097%=      5-min Rain = 0
KHA2 251053Z 15009KT 18/18 A30 RMK A01 T01790175  RH  097%=      5-min Rain = 0
KHA2 251054Z 15008KT 18/18 A30 RMK A01 T01790175  RH  098%=      5-min Rain = 0
KHA2 251055Z 15009KT 18/18 A30 RMK A01 T01790175  RH  098%=      5-min Rain = 0
KHA2 251056Z 15010KT 18/18 A30 RMK A01 T01790175  RH  098%=      5-min Rain = 0
KHA2 251057Z 16009KT 18/18 A30 RMK A01 T01790175  RH  098%=      5-min Rain = 0
KHA2 251058Z 15009KT 18/18 A30 RMK A01 T01790175  RH  098%=      5-min Rain = 0
KHA2 251059Z 15009KT 18/18 A30 RMK A01 T01790175  RH  098%=      5-min Rain = 0
KHA2 251100Z 15010KT 18/18 A30 RMK A01 T01790175  RH  098%=      5-min Rain = 0
KHA2 251101Z 15009KT 18/18 A30 RMK A01 T01790175  RH  098%=      5-min Rain = 0
KHA2 251102Z 15009KT 18/18 A30 RMK A01 T01790175  RH  098%=      5-min Rain = 0
KHA2 251103Z 15010KT 18/18 A30 RMK A01 T01780175  RH  098%=      5-min Rain = 0
KHA2 251104Z 15009KT 18/18 A30 RMK A01 T01780175  RH  098%=      5-min Rain = 0
KHA2 251105Z 15010KT 18/18 A30 RMK A01 T01780175  RH  098%=      5-min Rain = 0
KHA2 251106Z 15010KT 18/18 A30 RMK A01 T01780175  RH  098%=      5-min Rain = 0
KHA2 251107Z 15009KT 18/18 A30 RMK A01 T01780175  RH  098%=      5-min Rain = 0
KHA2 251108Z 15010KT 18/18 A30 RMK A01 T01780175  RH  098%=      5-min Rain = 0
KHA2 251109Z 15008KT 18/18 A30 RMK A01 T01780175  RH  098%=      5-min Rain = 0
KHA2 251110Z 15008KT 18/18 A30 RMK A01 T01780175  RH  098%=      5-min Rain = 0
KHA2 251111Z 14007KT 18/18 A30 RMK A01 T01780175  RH  098%=      5-min Rain = 0
KHA2 251112Z 15006KT 18/18 A30 RMK A01 T01780175  RH  098%=      5-min Rain = 0
KHA2 251113Z 15007KT 18/18 A30 RMK A01 T01780176  RH  098%=      5-min Rain = 0
KHA2 251114Z 16007KT 18/18 A30 RMK A01 T01780175  RH  098%=      5-min Rain = 0
KHA2 251115Z 15008KT 18/18 A3001 RMK A01 T01780176  RH  098%=      5-min Rain = 0
KHA2 251116Z 15008KT 18/18 A3001 RMK A01 T01790176  RH  098%=      5-min Rain = 0
KHA2 251117Z 15008KT 18/18 A3001 RMK A01 T01780176  RH  098%=      5-min Rain = 0
KHA2 251118Z 16009KT 18/18 A3001 RMK A01 T01780176  RH  098%=      5-min Rain = 0
KHA2 251119Z 15008KT 18/18 A3001 RMK A01 T01780176  RH  098%=      5-min Rain = 0
KHA2 251120Z 16008KT 18/18 A3001 RMK A01 T01790176  RH  098%=      5-min Rain = 0
KHA2 251121Z 16008KT 18/18 A3001 RMK A01 T01790176  RH  098%=      5-min Rain = 0
KHA2 251122Z 15007KT 18/18 A3001 RMK A01 T01780176  RH  098%=      5-min Rain = 0
KHA2 251123Z 15009KT 18/18 A3001 RMK A01 T01780176  RH  098%=      5-min Rain = 0
KHA2 251124Z 16008KT 18/18 A3001 RMK A01 T01780176  RH  098%=      5-min Rain = 0
KHA2 251125Z 16008KT 18/18 A3001 RMK A01 T01790176  RH  098%=      5-min Rain = 0
KHA2 251126Z 16007KT 18/18 A3001 RMK A01 T01790176  RH  098%=      5-min Rain = 0
KHA2 251127Z 16008KT 18/18 A3001 RMK A01 T01790176  RH  098%=      5-min Rain = 0
KHA2 251128Z 16008KT 18/18 A3001 RMK A01 T01780176  RH  098%=      5-min Rain = 0
KHA2 251129Z 15009KT 18/18 A3001 RMK A01 T01790177  RH  098%=      5-min Rain = 0
KHA2 251130Z 15007KT 18/18 A3001 RMK A01 T01790176  RH  098%=      5-min Rain = 0
KHA2 251131Z 15008KT 18/18 A3001 RMK A01 T01790177  RH  098%=      5-min Rain = 0
KHA2 251132Z 15008KT 18/18 A3001 RMK A01 T01800177  RH  098%=      5-min Rain = 0
KHA2 251133Z 15007KT 18/18 A3001 RMK A01 T01790177  RH  098%=      5-min Rain = 0
KHA2 251134Z 15007KT 18/18 A3001 RMK A01 T01800177  RH  098%=      5-min Rain = 0
KHA2 251135Z 15007KT 18/18 A3001 RMK A01 T01790177  RH  098%=      5-min Rain = 0
KHA2 251136Z 15008KT 18/18 A3001 RMK A01 T01800177  RH  098%=      5-min Rain = 0
KHA2 251137Z 16008KT 18/18 A3001 RMK A01 T01800177  RH  098%=      5-min Rain = 0
KHA2 251138Z 15009KT 18/18 A3001 RMK A01 T01800177  RH  098%=      5-min Rain = 0
KHA2 251139Z 15008KT 18/18 A3001 RMK A01 T01800177  RH  098%=      5-min Rain = 0
KHA2 251140Z 15007KT 18/18 A3001 RMK A01 T01800177  RH  098%=      5-min Rain = 0
KHA2 251141Z 16006KT 18/18 A3001 RMK A01 T01800177  RH  098%=      5-min Rain = 0
KHA2 251142Z 15006KT 18/18 A3002 RMK A01 T01800177  RH  098%=      5-min Rain = 0
KHA2 251143Z 15007KT 18/18 A3002 RMK A01 T01810178  RH  098%=      5-min Rain = 0
KHA2 251144Z 15007KT 18/18 A3002 RMK A01 T01810178  RH  098%=      5-min Rain = 0
KHA2 251145Z 15007KT 18/18 A3002 RMK A01 T01810177  RH  098%=      5-min Rain = 0
KHA2 251146Z 15008KT 18/18 A3002 RMK A01 T01810177  RH  098%=      5-min Rain = 0
KHA2 251147Z 15008KT 18/18 A3002 RMK A01 T01810177  RH  098%=      5-min Rain = 0
KHA2 251148Z 16008KT 18/18 A3002 RMK A01 T01810177  RH  098%=      5-min Rain = 0
KHA2 251149Z 15008KT 18/18 A3002 RMK A01 T01810178  RH  098%=      5-min Rain = 0
KHA2 251150Z 15007KT 18/18 A3002 RMK A01 T01810178  RH  098%=      5-min Rain = 0
KHA2 251151Z 15009KT 18/18 A3002 RMK A01 T01810178  RH  098%=      5-min Rain = 0
KHA2 251152Z 16009KT 18/18 A3002 RMK A01 T01810178  RH  098%=      5-min Rain = 0
KHA2 251153Z 16008KT 18/18 A3002 RMK A01 T01810178  RH  098%=      5-min Rain = 0
KHA2 251154Z 16009KT 18/18 A3002 RMK A01 T01810178  RH  098%=      5-min Rain = 0
KHA2 251155Z 16007KT 18/18 A3002 RMK A01 T01810178  RH  098%=      5-min Rain = 0
KHA2 251156Z 16009KT 18/18 A3002 RMK A01 T01810178  RH  098%=      5-min Rain = 0
KHA2 251157Z 16009KT 18/18 A3002 RMK A01 T01810178  RH  098%=      5-min Rain = 0
KHA2 251158Z 15008KT 18/18 A3002 RMK A01 T01820178  RH  098%=      5-min Rain = 0
KHA2 251159Z 15009KT 18/18 A3002 RMK A01 T01820179  RH  098%=      5-min Rain = 0
KHA2 251200Z 15009KT 18/18 A3002 RMK A01 T01820178  RH  098%=      5-min Rain = 0
KHA2 251201Z 16009KT 18/18 A3002 RMK A01 T01820178  RH  098%=      5-min Rain = 0
KHA2 251202Z 16009KT 18/18 A3002 RMK A01 T01820178  RH  098%=      5-min Rain = 0
KHA2 251203Z 16009KT 18/18 A3002 RMK A01 T01820179  RH  098%=      5-min Rain = 0
KHA2 251204Z 16009KT 18/18 A3002 RMK A01 T01820179  RH  098%=      5-min Rain = 0
KHA2 251205Z 16008KT 18/18 A3002 RMK A01 T01820179  RH  098%=      5-min Rain = 0
KHA2 251206Z 16009KT 18/18 A3002 RMK A01 T01820178  RH  098%=      5-min Rain = 0
KHA2 251207Z 16010KT 18/18 A3002 RMK A01 T01830179  RH  098%=      5-min Rain = 0
KHA2 251208Z 16010KT 18/18 A3002 RMK A01 T01830179  RH  098%=      5-min Rain = 0
KHA2 251209Z 16011KT 18/18 A3002 RMK A01 T01830179  RH  098%=      5-min Rain = 0
KHA2 251210Z 16010KT 18/18 A3002 RMK A01 T01830179  RH  098%=      5-min Rain = 0
KHA2 251211Z 16011KT 18/18 A3001 RMK A01 T01830179  RH  097%=      5-min Rain = 0
KHA2 251212Z 16010KT 18/18 A3001 RMK A01 T01830179  RH  097%=      5-min Rain = 0
KHA2 251213Z 16012KT 18/18 A3001 RMK A01 T01830179  RH  097%=      5-min Rain = 0
KHA2 251214Z 16011KT 18/18 A3002 RMK A01 T01830179  RH  097%=      5-min Rain = 0
KHA2 251215Z 16010KT 18/18 A3002 RMK A01 T01830179  RH  097%=      5-min Rain = 0
KHA2 251216Z 16010KT 18/18 A3002 RMK A01 T01830179  RH  097%=      5-min Rain = 0
KHA2 251217Z 16009KT 18/18 A3001 RMK A01 T01830179  RH  097%=      5-min Rain = 0
KHA2 251218Z 16009KT 18/18 A3001 RMK A01 T01840180  RH  097%=      5-min Rain = 0
KHA2 251219Z 16012KT 18/18 A3001 RMK A01 T01840180  RH  097%=      5-min Rain = 0
KHA2 251220Z 17012KT 18/18 A3001 RMK A01 T01840180  RH  097%=      5-min Rain = 0
KHA2 251221Z 16011KT 19/18 A3001 RMK A01 T01850180  RH  097%=      5-min Rain = 0
KHA2 251222Z 16012KT 19/18 A3001 RMK A01 T01850180  RH  097%=      5-min Rain = 0
KHA2 251223Z 16012KT 19/18 A3001 RMK A01 T01850180  RH  097%=      5-min Rain = 0
KHA2 251224Z 16010KT 19/18 A3001 RMK A01 T01850180  RH  097%=      5-min Rain = 0
KHA2 251225Z 16010KT 19/18 A3001 RMK A01 T01850180  RH  097%=      5-min Rain = 0
KHA2 251226Z 16012KT 19/18 A3001 RMK A01 T01850180  RH  097%=      5-min Rain = 0
KHA2 251227Z 16011KT 19/18 A3001 RMK A01 T01850180  RH  097%=      5-min Rain = 0
KHA2 251228Z 16011KT 19/18 A3001 RMK A01 T01850180  RH  097%=      5-min Rain = 0
KHA2 251229Z 16009KT 19/18 A3001 RMK A01 T01850180  RH  097%=      5-min Rain = 0
KHA2 251230Z 17009KT 19/18 A3001 RMK A01 T01860180  RH  097%=      5-min Rain = 0
KHA2 251231Z 16012KT 19/18 A3001 RMK A01 T01860181  RH  097%=      5-min Rain = 0
KHA2 251232Z 16011KT 19/18 A3002 RMK A01 T01860181  RH  097%=      5-min Rain = 0
KHA2 251233Z 16010KT 19/18 A3002 RMK A01 T01860181  RH  096%=      5-min Rain = 0
KHA2 251234Z 17010KT 19/18 A3002 RMK A01 T01870181  RH  096%=      5-min Rain = 0
KHA2 251235Z 16011KT 19/18 A3002 RMK A01 T01870181  RH  096%=      5-min Rain = 0
KHA2 251236Z 17012KT 19/18 A3002 RMK A01 T01870181  RH  096%=      5-min Rain = 0
KHA2 251237Z 16011KT 19/18 A3001 RMK A01 T01870181  RH  096%=      5-min Rain = 0
KHA2 251238Z 16009KT 19/18 A3001 RMK A01 T01870181  RH  096%=      5-min Rain = 0
KHA2 251239Z 16010KT 19/18 A3001 RMK A01 T01870181  RH  096%=      5-min Rain = 0
KHA2 251240Z 16010KT 19/18 A3001 RMK A01 T01880181  RH  096%=      5-min Rain = 0
KHA2 251241Z 16011KT 19/18 A3001 RMK A01 T01880181  RH  096%=      5-min Rain = 0
KHA2 251242Z 16011KT 19/18 A3001 RMK A01 T01880182  RH  096%=      5-min Rain = 0
KHA2 251243Z 17011KT 19/18 A3001 RMK A01 T01880181  RH  096%=      5-min Rain = 0
KHA2 251244Z 16010KT 19/18 A3002 RMK A01 T01880181  RH  096%=      5-min Rain = 0
KHA2 251245Z 17010KT 19/18 A3002 RMK A01 T01880181  RH  096%=      5-min Rain = 0
KHA2 251246Z 17011KT 19/18 A3002 RMK A01 T01880181  RH  096%=      5-min Rain = 0
KHA2 251247Z 17010KT 19/18 A3002 RMK A01 T01880181  RH  096%=      5-min Rain = 0
KHA2 251248Z 17011KT 19/18 A3002 RMK A01 T01880182  RH  096%=      5-min Rain = 0
KHA2 251249Z 17011KT 19/18 A3002 RMK A01 T01890182  RH  096%=      5-min Rain = 0
KHA2 251250Z 17013KT 19/18 A3002 RMK A01 T01890182  RH  096%=      5-min Rain = 0
KHA2 251251Z 17014KT 19/18 A3002 RMK A01 T01890182  RH  096%=      5-min Rain = 0
KHA2 251252Z 17011KT 19/18 A3002 RMK A01 T01890182  RH  095%=      5-min Rain = 0
KHA2 251253Z 17011KT 19/18 A3002 RMK A01 T01900182  RH  096%=      5-min Rain = 0
KHA2 251254Z 17011KT 19/18 A3002 RMK A01 T01890182  RH  096%=      5-min Rain = 0
KHA2 251255Z 17011KT 19/18 A3002 RMK A01 T01890182  RH  095%=      5-min Rain = 0
KHA2 251256Z 17012KT 19/18 A3002 RMK A01 T01890182  RH  095%=      5-min Rain = 0
KHA2 251257Z 17011KT 19/18 A3002 RMK A01 T01890182  RH  095%=      5-min Rain = 0
KHA2 251258Z 17012KT 19/18 A3002 RMK A01 T01890182  RH  095%=      5-min Rain = 0
KHA2 251259Z 17012KT 19/18 A3002 RMK A01 T01900182  RH  095%=      5-min Rain = 0
KHA2 251300Z 17010KT 19/18 A3002 RMK A01 T01890182  RH  095%=      5-min Rain = 0
KHA2 251301Z 17012KT 19/18 A3002 RMK A01 T01890182  RH  095%=      5-min Rain = 0
KHA2 251302Z 17012KT 19/18 A3002 RMK A01 T01890182  RH  095%=      5-min Rain = 0
KHA2 251303Z 17013KT 19/18 A3002 RMK A01 T01900182  RH  095%=      5-min Rain = 0
KHA2 251304Z 17012KT 19/18 A3002 RMK A01 T01900182  RH  095%=      5-min Rain = 0
KHA2 251305Z 17012KT 19/18 A3002 RMK A01 T01900183  RH  095%=      5-min Rain = 0
KHA2 251306Z 16011KT 19/18 A3002 RMK A01 T01900182  RH  095%=      5-min Rain = 0
KHA2 251307Z 17014KT 19/18 A3002 RMK A01 T01910183  RH  095%=      5-min Rain = 0
KHA2 251308Z 17012KT 19/18 A3003 RMK A01 T01900183  RH  095%=      5-min Rain = 0
KHA2 251309Z 17012KT 19/18 A3003 RMK A01 T01910183  RH  095%=      5-min Rain = 0
KHA2 251310Z 17011KT 19/18 A3003 RMK A01 T01900182  RH  095%=      5-min Rain = 0
KHA2 251311Z 17014KT 19/18 A3003 RMK A01 T01900182  RH  095%=      5-min Rain = 0
KHA2 251312Z 17015KT 19/18 A3003 RMK A01 T01900182  RH  095%=      5-min Rain = 0
KHA2 251313Z 18012KT 19/18 A3003 RMK A01 T01900182  RH  095%=      5-min Rain = 0
KHA2 251314Z 17011KT 19/18 A3003 RMK A01 T01910183  RH  095%=      5-min Rain = 0
KHA2 251315Z 17013KT 19/18 A3003 RMK A01 T01910183  RH  095%=      5-min Rain = 0
KHA2 251316Z 17012KT 19/18 A3003 RMK A01 T01910183  RH  095%=      5-min Rain = 0
KHA2 251317Z 17013KT 19/18 A3003 RMK A01 T01920183  RH  095%=      5-min Rain = 0
KHA2 251318Z 18015KT 19/18 A3003 RMK A01 T01910183  RH  095%=      5-min Rain = 0
KHA2 251319Z 17013KT 19/18 A3003 RMK A01 T01910183  RH  095%=      5-min Rain = 0
KHA2 251320Z 19015KT 19/18 A3003 RMK A01 T01910183  RH  095%=      5-min Rain = 0
KHA2 251321Z 18013KT 19/18 A3003 RMK A01 T01920183  RH  095%=      5-min Rain = 0
KHA2 251322Z 18013KT 19/18 A3003 RMK A01 T01920183  RH  095%=      5-min Rain = 0
KHA2 251323Z 18015KT 19/18 A3003 RMK A01 T01920183  RH  095%=      5-min Rain = 0
KHA2 251324Z 18014KT 19/18 A3003 RMK A01 T01920183  RH  094%=      5-min Rain = 0
KHA2 251325Z 18016KT 19/18 A3004 RMK A01 T01920183  RH  094%=      5-min Rain = 0
KHA2 251326Z 18015KT 19/18 A3004 RMK A01 T01920183  RH  094%=      5-min Rain = 0
KHA2 251327Z 18015KT 19/18 A3004 RMK A01 T01930184  RH  094%=      5-min Rain = 0
KHA2 251328Z 18013KT 19/18 A3004 RMK A01 T01930184  RH  094%=      5-min Rain = 0
KHA2 251329Z 18014KT 19/18 A3004 RMK A01 T01930183  RH  094%=      5-min Rain = 0
KHA2 251330Z 18014KT 19/18 A3004 RMK A01 T01930184  RH  094%=      5-min Rain = 0
KHA2 251331Z 18016G22KT 19/18 A3004 RMK A01 T01930184  RH  094%=      5-min Rain = 0
KHA2 251332Z 18017G22KT 19/18 A3004 RMK A01 T01930183  RH  094%=      5-min Rain = 0
KHA2 251333Z 18016KT 19/18 A3004 RMK A01 T01930183  RH  094%=      5-min Rain = 0
KHA2 251334Z 18016G21KT 19/18 A3004 RMK A01 T01930183  RH  094%=      5-min Rain = 0
KHA2 251335Z 18017KT 19/18 A3004 RMK A01 T01930184  RH  094%=      5-min Rain = 0
KHA2 251336Z 18014KT 19/18 A3004 RMK A01 T01930184  RH  094%=      5-min Rain = 0
KHA2 251337Z 18016KT 19/18 A3004 RMK A01 T01930184  RH  094%=      5-min Rain = 0
KHA2 251338Z 18017KT 19/18 A3004 RMK A01 T01930184  RH  094%=      5-min Rain = 0
KHA2 251339Z 18016KT 19/18 A3004 RMK A01 T01930184  RH  094%=      5-min Rain = 0
KHA2 251340Z 18015KT 19/18 A3004 RMK A01 T01930184  RH  094%=      5-min Rain = 0
KHA2 251341Z 18013KT 19/18 A3004 RMK A01 T01930184  RH  094%=      5-min Rain = 0
KHA2 251342Z 18013KT 19/18 A3004 RMK A01 T01930184  RH  094%=      5-min Rain = 0
KHA2 251343Z 18013KT 19/18 A3004 RMK A01 T01940184  RH  094%=      5-min Rain = 0
KHA2 251344Z 18012KT 19/19 A3004 RMK A01 T01940185  RH  094%=      5-min Rain = 0
KHA2 251345Z 18014KT 20/19 A3004 RMK A01 T01950185  RH  094%=      5-min Rain = 0
KHA2 251346Z 18015KT 20/19 A3004 RMK A01 T01950185  RH  094%=      5-min Rain = 0
KHA2 251347Z 18013KT 20/19 A3004 RMK A01 T01950185  RH  093%=      5-min Rain = 0
KHA2 251348Z 18012KT 20/19 A3004 RMK A01 T01960185  RH  093%=      5-min Rain = 0
KHA2 251349Z 18012KT 20/19 A3004 RMK A01 T01960185  RH  093%=      5-min Rain = 0
KHA2 251350Z 18016KT 20/19 A3004 RMK A01 T01960185  RH  093%=      5-min Rain = 0
KHA2 251351Z 18014KT 20/18 A3004 RMK A01 T01960184  RH  093%=      5-min Rain = 0
KHA2 251352Z 18014KT 20/19 A3004 RMK A01 T01960185  RH  093%=      5-min Rain = 0
KHA2 251353Z 18013KT 20/18 A3004 RMK A01 T01950184  RH  093%=      5-min Rain = 0
KHA2 251354Z 18013KT 20/19 A3004 RMK A01 T01960185  RH  094%=      5-min Rain = 0
KHA2 251355Z 18016KT 20/19 A3004 RMK A01 T01950185  RH  093%=      5-min Rain = 0
KHA2 251356Z 18017KT 20/18 A3004 RMK A01 T01960184  RH  093%=      5-min Rain = 0
KHA2 251357Z 18016KT 20/18 A3004 RMK A01 T01960184  RH  093%=      5-min Rain = 0
KHA2 251358Z 18013KT 20/19 A3004 RMK A01 T01960185  RH  093%=      5-min Rain = 0
KHA2 251359Z 18013KT 20/19 A3004 RMK A01 T01970185  RH  093%=      5-min Rain = 0
KHA2 251400Z 18015KT 20/19 A3004 RMK A01 T01980186  RH  093%=      5-min Rain = 0
KHA2 251401Z 18015KT 20/19 A3004 RMK A01 T01980186  RH  092%=      5-min Rain = 0
KHA2 251402Z 18015KT 20/19 A3004 RMK A01 T01980185  RH  092%=      5-min Rain = 0
KHA2 251403Z 17016KT 20/19 A3004 RMK A01 T01980185  RH  092%=      5-min Rain = 0
KHA2 251404Z 18013KT 20/19 A3004 RMK A01 T01980185  RH  092%=      5-min Rain = 0
KHA2 251405Z 18017KT 20/19 A3004 RMK A01 T01980185  RH  092%=      5-min Rain = 0
KHA2 251406Z 18015KT 20/19 A3004 RMK A01 T01980185  RH  092%=      5-min Rain = 0
KHA2 251407Z 18015KT 20/19 A3004 RMK A01 T01980185  RH  092%=      5-min Rain = 0
KHA2 251408Z 18013KT 20/19 A3004 RMK A01 T01980185  RH  092%=      5-min Rain = 0
KHA2 251409Z 17013KT 20/19 A3004 RMK A01 T01990186  RH  092%=      5-min Rain = 0
KHA2 251410Z 18012KT 20/19 A3004 RMK A01 T02000187  RH  092%=      5-min Rain = 0
KHA2 251411Z 19014KT 20/19 A3004 RMK A01 T02010187  RH  091%=      5-min Rain = 0
KHA2 251412Z 18013KT 20/19 A3004 RMK A01 T02010186  RH  091%=      5-min Rain = 0
KHA2 251413Z 18014KT 20/19 A3004 RMK A01 T02010186  RH  091%=      5-min Rain = 0
KHA2 251414Z 18012KT 20/19 A3004 RMK A01 T02010186  RH  091%=      5-min Rain = 0
KHA2 251415Z 18015KT 20/19 A3004 RMK A01 T02000186  RH  091%=      5-min Rain = 0
KHA2 251416Z 18013KT 20/19 A3004 RMK A01 T02000185  RH  091%=      5-min Rain = 0
KHA2 251417Z 18014KT 20/19 A3004 RMK A01 T02010186  RH  091%=      5-min Rain = 0
KHA2 251418Z 18011KT 20/19 A3004 RMK A01 T02010185  RH  091%=      5-min Rain = 0
KHA2 251419Z 18012KT 20/19 A3004 RMK A01 T02010185  RH  091%=      5-min Rain = 0
KHA2 251420Z 18013KT 20/19 A3004 RMK A01 T02010186  RH  091%=      5-min Rain = 0
KHA2 251421Z 18013KT 20/19 A3004 RMK A01 T02020186  RH  091%=      5-min Rain = 0
KHA2 251422Z 19014KT 20/19 A3004 RMK A01 T02020186  RH  090%=      5-min Rain = 0
KHA2 251423Z 18011KT 20/19 A3004 RMK A01 T02030186  RH  090%=      5-min Rain = 0
KHA2 251424Z 18014KT 20/19 A3004 RMK A01 T02040187  RH  090%=      5-min Rain = 0
KHA2 251425Z 19014KT 21/19 A3004 RMK A01 T02050186  RH  089%=      5-min Rain = 0
KHA2 251426Z 18013KT 21/19 A3004 RMK A01 T02050187  RH  089%=      5-min Rain = 0
KHA2 251427Z 19014KT 21/19 A3004 RMK A01 T02060187  RH  089%=      5-min Rain = 0
KHA2 251428Z 19016KT 21/19 A3004 RMK A01 T02060187  RH  089%=      5-min Rain = 0
KHA2 251429Z 19013KT 21/19 A3004 RMK A01 T02060186  RH  088%=      5-min Rain = 0
KHA2 251430Z 18013KT 21/19 A3004 RMK A01 T02070187  RH  088%=      5-min Rain = 0
KHA2 251431Z 18013KT 21/19 A3004 RMK A01 T02080188  RH  088%=      5-min Rain = 0
KHA2 251432Z 18016KT 21/19 A3004 RMK A01 T02090187  RH  088%=      5-min Rain = 0
KHA2 251433Z 19015KT 21/19 A3004 RMK A01 T02080186  RH  087%=      5-min Rain = 0
KHA2 251434Z 19014KT 21/19 A3004 RMK A01 T02080187  RH  088%=      5-min Rain = 0
KHA2 251435Z 19015KT 21/19 A3004 RMK A01 T02080186  RH  087%=      5-min Rain = 0
KHA2 251436Z 19014KT 21/19 A3004 RMK A01 T02080186  RH  087%=      5-min Rain = 0
KHA2 251437Z 19014KT 21/19 A3004 RMK A01 T02090186  RH  087%=      5-min Rain = 0
KHA2 251438Z 19013KT 21/19 A3004 RMK A01 T02090187  RH  087%=      5-min Rain = 0
KHA2 251439Z 18013KT 21/19 A3004 RMK A01 T02090187  RH  087%=      5-min Rain = 0
KHA2 251440Z 18014KT 21/19 A3004 RMK A01 T02090187  RH  087%=      5-min Rain = 0
KHA2 251441Z 18015KT 21/19 A3005 RMK A01 T02090186  RH  087%=      5-min Rain = 0
KHA2 251442Z 18016KT 21/19 A3004 RMK A01 T02090186  RH  087%=      5-min Rain = 0
KHA2 251443Z 19015KT 21/19 A3004 RMK A01 T02090186  RH  087%=      5-min Rain = 0
KHA2 251444Z 18014KT 21/19 A3004 RMK A01 T02090186  RH  087%=      5-min Rain = 0
KHA2 251445Z 19012KT 21/19 A3005 RMK A01 T02090187  RH  087%=      5-min Rain = 0
KHA2 251446Z 19014KT 21/19 A3005 RMK A01 T02100187  RH  087%=      5-min Rain = 0
KHA2 251447Z 19016KT 21/19 A3004 RMK A01 T02110187  RH  086%=      5-min Rain = 0
KHA2 251448Z 19014KT 21/19 A3005 RMK A01 T02100186  RH  086%=      5-min Rain = 0
KHA2 251449Z 19012KT 21/19 A3005 RMK A01 T02110187  RH  086%=      5-min Rain = 0
KHA2 251450Z 19012KT 21/19 A3005 RMK A01 T02110187  RH  086%=      5-min Rain = 0
KHA2 251451Z 19015KT 21/19 A3005 RMK A01 T02120187  RH  086%=      5-min Rain = 0
KHA2 251452Z 20013KT 21/19 A3005 RMK A01 T02120186  RH  085%=      5-min Rain = 0
KHA2 251453Z 20015KT 21/19 A3005 RMK A01 T02120187  RH  086%=      5-min Rain = 0
KHA2 251454Z 19014KT 21/19 A3005 RMK A01 T02120187  RH  086%=      5-min Rain = 0
KHA2 251455Z 19015KT 21/19 A3005 RMK A01 T02110187  RH  086%=      5-min Rain = 0
KHA2 251456Z 19013KT 21/19 A3005 RMK A01 T02110187  RH  086%=      5-min Rain = 0
KHA2 251457Z 19013KT 21/19 A3005 RMK A01 T02120187  RH  086%=      5-min Rain = 0
KHA2 251458Z 19013KT 21/19 A3005 RMK A01 T02130188  RH  086%=      5-min Rain = 0
KHA2 251459Z 19013KT 21/19 A3005 RMK A01 T02130188  RH  086%=      5-min Rain = 0
KHA2 251500Z 18015KT 21/19 A3005 RMK A01 T02140188  RH  085%=      5-min Rain = 0
KHA2 251501Z 19014KT 21/19 A3005 RMK A01 T02140188  RH  085%=      5-min Rain = 0
KHA2 251502Z 19015KT 22/19 A3005 RMK A01 T02150188  RH  085%=      5-min Rain = 0
KHA2 251503Z 19015KT 22/19 A3005 RMK A01 T02150188  RH  084%=      5-min Rain = 0
KHA2 251504Z 19016KT 22/19 A3005 RMK A01 T02160188  RH  084%=      5-min Rain = 0
KHA2 251505Z 19015KT 22/19 A3005 RMK A01 T02160188  RH  084%=      5-min Rain = 0
KHA2 251506Z 19016KT 22/19 A3005 RMK A01 T02160187  RH  084%=      5-min Rain = 0
KHA2 251507Z 19014KT 22/19 A3005 RMK A01 T02160188  RH  084%=      5-min Rain = 0
KHA2 251508Z 18015G20KT 22/19 A3005 RMK A01 T02160188  RH  084%=      5-min Rain = 0
KHA2 251509Z 20013KT 22/19 A3005 RMK A01 T02160188  RH  084%=      5-min Rain = 0
KHA2 251510Z 19014KT 22/19 A3005 RMK A01 T02160188  RH  084%=      5-min Rain = 0
KHA2 251511Z 19014KT 22/19 A3005 RMK A01 T02160188  RH  084%=      5-min Rain = 0
KHA2 251512Z 19015KT 22/19 A3005 RMK A01 T02160188  RH  084%=      5-min Rain = 0
KHA2 251513Z 20014KT 22/19 A3005 RMK A01 T02170188  RH  084%=      5-min Rain = 0
KHA2 251514Z 20014KT 22/19 A3005 RMK A01 T02170188  RH  084%=      5-min Rain = 0
KHA2 251515Z 19015KT 22/19 A3005 RMK A01 T02170188  RH  083%=      5-min Rain = 0
KHA2 251516Z 19016KT 22/19 A3005 RMK A01 T02180188  RH  083%=      5-min Rain = 0
KHA2 251517Z 18015KT 22/19 A3004 RMK A01 T02200189  RH  083%=      5-min Rain = 0
KHA2 251518Z 18016KT 22/19 A3004 RMK A01 T02200189  RH  083%=      5-min Rain = 0
KHA2 251519Z 18017KT 22/19 A3004 RMK A01 T02200188  RH  082%=      5-min Rain = 0
KHA2 251520Z 18013KT 22/19 A3004 RMK A01 T02190188  RH  083%=      5-min Rain = 0
KHA2 251521Z 18015KT 22/19 A3004 RMK A01 T02200189  RH  083%=      5-min Rain = 0
KHA2 251522Z 19015KT 22/19 A3004 RMK A01 T02200189  RH  082%=      5-min Rain = 0
KHA2 251523Z 18012KT 22/19 A3004 RMK A01 T02210189  RH  082%=      5-min Rain = 0
KHA2 251524Z 18015KT 22/19 A3004 RMK A01 T02230190  RH  082%=      5-min Rain = 0
KHA2 251525Z 19016KT 22/19 A3004 RMK A01 T02240189  RH  080%=      5-min Rain = 0
KHA2 251526Z 19015KT 22/19 A3004 RMK A01 T02230188  RH  080%=      5-min Rain = 0
KHA2 251527Z 18014G19KT 22/19 A3004 RMK A01 T02220188  RH  081%=      5-min Rain = 0
KHA2 251528Z 18015KT 22/19 A3004 RMK A01 T02220189  RH  081%=      5-min Rain = 0
KHA2 251529Z 18016KT 22/19 A3004 RMK A01 T02220189  RH  081%=      5-min Rain = 0
KHA2 251530Z 19013KT 22/19 A3004 RMK A01 T02240190  RH  081%=      5-min Rain = 0
KHA2 251531Z 18016KT 23/19 A3004 RMK A01 T02250189  RH  080%=      5-min Rain = 0
KHA2 251532Z 18014KT 22/19 A3004 RMK A01 T02240189  RH  081%=      5-min Rain = 0
KHA2 251533Z 18013KT 23/19 A3004 RMK A01 T02250190  RH  081%=      5-min Rain = 0
KHA2 251534Z 18016KT 23/19 A3004 RMK A01 T02260190  RH  080%=      5-min Rain = 0
KHA2 251535Z 18014G19KT 23/19 A3004 RMK A01 T02270190  RH  080%=      5-min Rain = 0
KHA2 251536Z 19016G21KT 23/19 A3004 RMK A01 T02270190  RH  079%=      5-min Rain = 0
KHA2 251537Z 19016KT 23/19 A3004 RMK A01 T02270189  RH  079%=      5-min Rain = 0
KHA2 251538Z 19014KT 23/19 A3004 RMK A01 T02260189  RH  080%=      5-min Rain = 0
KHA2 251539Z 19016KT 23/19 A3004 RMK A01 T02260189  RH  080%=      5-min Rain = 0
KHA2 251540Z 19015KT 23/19 A3004 RMK A01 T02250188  RH  080%=      5-min Rain = 0
KHA2 251541Z 19013G18KT 22/19 A3004 RMK A01 T02240188  RH  080%=      5-min Rain = 0
KHA2 251542Z 19012KT 23/19 A3004 RMK A01 T02250189  RH  080%=      5-min Rain = 0
KHA2 251543Z 18014KT 23/19 A3004 RMK A01 T02250189  RH  080%=      5-min Rain = 0
KHA2 251544Z 18014KT 22/19 A3004 RMK A01 T02230189  RH  081%=      5-min Rain = 0
KHA2 251545Z 18014KT 22/19 A3004 RMK A01 T02220189  RH  081%=      5-min Rain = 0
KHA2 251546Z 19014KT 22/19 A3004 RMK A01 T02210189  RH  082%=      5-min Rain = 0
KHA2 251547Z 18015KT 22/19 A3004 RMK A01 T02200189  RH  082%=      5-min Rain = 0
KHA2 251548Z 18015KT 22/19 A3003 RMK A01 T02200188  RH  082%=      5-min Rain = 0
KHA2 251549Z 19013KT 22/19 A3004 RMK A01 T02200189  RH  083%=      5-min Rain = 0
KHA2 251550Z 19012KT 22/19 A3004 RMK A01 T02200188  RH  082%=      5-min Rain = 0
KHA2 251551Z 19009KT 22/19 A3004 RMK A01 T02220190  RH  082%=      5-min Rain = 0
KHA2 251552Z 19014KT 22/19 A3004 RMK A01 T02230190  RH  082%=      5-min Rain = 0
KHA2 251553Z 19013KT 22/19 A3003 RMK A01 T02230189  RH  081%=      5-min Rain = 0
KHA2 251554Z 19011KT 22/19 A3004 RMK A01 T02220189  RH  081%=      5-min Rain = 0
KHA2 251555Z 18013KT 22/19 A3004 RMK A01 T02230190  RH  082%=      5-min Rain = 0
KHA2 251556Z 18015KT 22/19 A3004 RMK A01 T02230189  RH  081%=      5-min Rain = 0
KHA2 251557Z 18013KT 22/19 A3004 RMK A01 T02220189  RH  082%=      5-min Rain = 0
KHA2 251558Z 18015KT 22/19 A3004 RMK A01 T02210188  RH  082%=      5-min Rain = 0
KHA2 251559Z 18016KT 22/19 A3004 RMK A01 T02200188  RH  082%=      5-min Rain = 0
KHA2 251600Z 18018KT 22/19 A3004 RMK A01 T02190188  RH  082%=      5-min Rain = 0
KHA2 251601Z 18015KT 22/19 A3004 RMK A01 T02180187  RH  082%=      5-min Rain = 0
KHA2 251602Z 18016KT 22/19 A3004 RMK A01 T02180188  RH  083%=      5-min Rain = 0
KHA2 251603Z 18015KT 22/19 A3004 RMK A01 T02180188  RH  083%=      5-min Rain = 0
KHA2 251604Z 18014KT 22/19 A3004 RMK A01 T02180188  RH  083%=      5-min Rain = 0
KHA2 251605Z 18013KT 22/19 A3004 RMK A01 T02180189  RH  083%=      5-min Rain = 0
KHA2 251606Z 18015KT 22/19 A3004 RMK A01 T02190189  RH  083%=      5-min Rain = 0
KHA2 251607Z 19016KT 22/19 A3004 RMK A01 T02190188  RH  083%=      5-min Rain = 0
KHA2 251608Z 19015KT 22/19 A3004 RMK A01 T02200188  RH  082%=      5-min Rain = 0
KHA2 251609Z 18014KT 22/19 A3004 RMK A01 T02210188  RH  082%=      5-min Rain = 0
KHA2 251610Z 19014G19KT 22/19 A3004 RMK A01 T02220189  RH  082%=      5-min Rain = 0
KHA2 251611Z 18014G19KT 22/19 A3004 RMK A01 T02230188  RH  081%=      5-min Rain = 0
KHA2 251612Z 18015KT 22/19 A3004 RMK A01 T02230188  RH  081%=      5-min Rain = 0
KHA2 251613Z 19015KT 22/19 A3004 RMK A01 T02230188  RH  081%=      5-min Rain = 0
KHA2 251614Z 18015KT 22/19 A3004 RMK A01 T02230188  RH  081%=      5-min Rain = 0
KHA2 251615Z 18016KT 22/19 A3003 RMK A01 T02220188  RH  081%=      5-min Rain = 0
KHA2 251616Z 18015KT 22/19 A3004 RMK A01 T02210188  RH  082%=      5-min Rain = 0
KHA2 251617Z 18012KT 22/19 A3003 RMK A01 T02210189  RH  082%=      5-min Rain = 0
KHA2 251618Z 17011KT 22/19 A3003 RMK A01 T02220190  RH  082%=      5-min Rain = 0
KHA2 251619Z 18011KT 22/19 A3003 RMK A01 T02240190  RH  082%=      5-min Rain = 0
KHA2 251620Z 17013G18KT 22/19 A3003 RMK A01 T02230191  RH  082%=      5-min Rain = 0
KHA2 251621Z 17016KT 22/19 A3003 RMK A01 T02240189  RH  081%=      5-min Rain = 0
KHA2 251622Z 17015KT 22/19 A3003 RMK A01 T02230189  RH  081%=      5-min Rain = 0
KHA2 251623Z 17014KT 22/19 A3003 RMK A01 T02230189  RH  081%=      5-min Rain = 0
KHA2 251624Z 17016KT 22/19 A3003 RMK A01 T02220189  RH  082%=      5-min Rain = 0
KHA2 251625Z 17017KT 22/19 A3003 RMK A01 T02230189  RH  081%=      5-min Rain = 0
KHA2 251626Z 17014KT 22/19 A3003 RMK A01 T02220189  RH  081%=      5-min Rain = 0
KHA2 251627Z 17013KT 22/19 A3003 RMK A01 T02220189  RH  082%=      5-min Rain = 0
KHA2 251628Z 17013KT 22/19 A3003 RMK A01 T02230190  RH  082%=      5-min Rain = 0
KHA2 251629Z 17015KT 23/19 A3003 RMK A01 T02250192  RH  081%=      5-min Rain = 0
KHA2 251630Z 17014KT 23/19 A3003 RMK A01 T02250190  RH  081%=      5-min Rain = 0
KHA2 251631Z 18014KT 23/19 A3003 RMK A01 T02260191  RH  081%=      5-min Rain = 0
KHA2 251632Z 18013KT 23/19 A3003 RMK A01 T02270192  RH  080%=      5-min Rain = 0
KHA2 251633Z 17015KT 23/19 A3003 RMK A01 T02290192  RH  080%=      5-min Rain = 0
KHA2 251634Z 17018KT 23/19 A3003 RMK A01 T02290190  RH  079%=      5-min Rain = 0
KHA2 251635Z 17016KT 23/19 A3003 RMK A01 T02270189  RH  079%=      5-min Rain = 0
KHA2 251636Z 18016KT 23/19 A3003 RMK A01 T02250190  RH  080%=      5-min Rain = 0
KHA2 251637Z 18018KT 23/19 A3003 RMK A01 T02250189  RH  080%=      5-min Rain = 0
KHA2 251638Z 17015KT 22/19 A3004 RMK A01 T02240190  RH  081%=      5-min Rain = 0
KHA2 251639Z 17016KT 23/19 A3004 RMK A01 T02250191  RH  081%=      5-min Rain = 0
KHA2 251640Z 17015KT 23/19 A3004 RMK A01 T02260191  RH  081%=      5-min Rain = 0
KHA2 251641Z 16017KT 23/19 A3004 RMK A01 T02260191  RH  081%=      5-min Rain = 0
KHA2 251642Z 16017KT 23/19 A3004 RMK A01 T02260191  RH  080%=      5-min Rain = 0
KHA2 251643Z 16016KT 23/19 A3004 RMK A01 T02250190  RH  080%=      5-min Rain = 0
KHA2 251644Z 16018KT 23/19 A3004 RMK A01 T02250190  RH  080%=      5-min Rain = 0
KHA2 251645Z 17016KT 23/19 A3004 RMK A01 T02250190  RH  081%=      5-min Rain = 0
KHA2 251646Z 17017KT 23/19 A3004 RMK A01 T02250190  RH  080%=      5-min Rain = 0
KHA2 251647Z 17018KT 23/19 A3004 RMK A01 T02250190  RH  081%=      5-min Rain = 0
KHA2 251648Z 16017KT 23/19 A3004 RMK A01 T02250190  RH  080%=      5-min Rain = 0
KHA2 251649Z 16014KT 22/19 A3004 RMK A01 T02240190  RH  081%=      5-min Rain = 0
KHA2 251650Z 17017KT 22/19 A3004 RMK A01 T02240190  RH  081%=      5-min Rain = 0
KHA2 251651Z 17016KT 23/19 A3004 RMK A01 T02250190  RH  081%=      5-min Rain = 0
KHA2 251652Z 16016G21KT 23/19 A3004 RMK A01 T02260190  RH  080%=      5-min Rain = 0
KHA2 251653Z 16018G23KT 23/19 A3004 RMK A01 T02270189  RH  079%=      5-min Rain = 0
KHA2 251654Z 17018KT 23/19 A3004 RMK A01 T02260189  RH  079%=      5-min Rain = 0
KHA2 251655Z 17016KT 23/19 A3004 RMK A01 T02260189  RH  079%=      5-min Rain = 0
KHA2 251656Z 17017KT 23/19 A3004 RMK A01 T02270190  RH  080%=      5-min Rain = 0
KHA2 251657Z 17015KT 23/19 A3004 RMK A01 T02280191  RH  080%=      5-min Rain = 0
KHA2 251658Z 16016G21KT 23/19 A3004 RMK A01 T02280191  RH  080%=      5-min Rain = 0
KHA2 251659Z 16018KT 23/19 A3004 RMK A01 T02290190  RH  079%=      5-min Rain = 0
KHA2 251700Z 17019KT 23/19 A3004 RMK A01 T02290190  RH  079%=      5-min Rain = 0
KHA2 251701Z 16018KT 23/19 A3004 RMK A01 T02280189  RH  079%=      5-min Rain = 0
KHA2 251702Z 16015KT 23/19 A3004 RMK A01 T02270190  RH  079%=      5-min Rain = 0
KHA2 251703Z 16014KT 23/19 A3004 RMK A01 T02280190  RH  079%=      5-min Rain = 0
KHA2 251704Z 17016KT 23/19 A3004 RMK A01 T02290191  RH  079%=      5-min Rain = 0
KHA2 251705Z 17014KT 23/19 A3004 RMK A01 T02300191  RH  079%=      5-min Rain = 0
KHA2 251706Z 16015KT 23/19 A3004 RMK A01 T02300190  RH  078%=      5-min Rain = 0
KHA2 251707Z 16018KT 23/19 A3004 RMK A01 T02280190  RH  079%=      5-min Rain = 0
KHA2 251708Z 17017G22KT 23/19 A3004 RMK A01 T02280190  RH  079%=      5-min Rain = 0
KHA2 251709Z 18016KT 23/19 A3004 RMK A01 T02270189  RH  079%=      5-min Rain = 0
KHA2 251710Z 17017KT 23/19 A3004 RMK A01 T02280189  RH  079%=      5-min Rain = 0
KHA2 251711Z 17017G22KT 23/19 A3004 RMK A01 T02280189  RH  079%=      5-min Rain = 0
KHA2 251712Z 17018KT 23/19 A3004 RMK A01 T02270189  RH  079%=      5-min Rain = 0
KHA2 251713Z 17018KT 23/19 A3004 RMK A01 T02260189  RH  079%=      5-min Rain = 0
KHA2 251714Z 17018KT 23/19 A3004 RMK A01 T02260189  RH  079%=      5-min Rain = 0
KHA2 251715Z 18017KT 23/19 A3004 RMK A01 T02260189  RH  080%=      5-min Rain = 0
KHA2 251716Z 18015KT 23/19 A3004 RMK A01 T02260190  RH  080%=      5-min Rain = 0
KHA2 251717Z 17015KT 23/19 A3004 RMK A01 T02290192  RH  080%=      5-min Rain = 0
KHA2 251718Z 18017KT 23/19 A3004 RMK A01 T02290190  RH  079%=      5-min Rain = 0
KHA2 251719Z 17017KT 23/19 A3004 RMK A01 T02280189  RH  079%=      5-min Rain = 0
KHA2 251720Z 17015KT 23/19 A3004 RMK A01 T02280189  RH  079%=      5-min Rain = 0
KHA2 251721Z 17015KT 23/19 A3004 RMK A01 T02290190  RH  078%=      5-min Rain = 0
KHA2 251722Z 17017KT 23/19 A3004 RMK A01 T02300190  RH  078%=      5-min Rain = 0
KHA2 251723Z 16017KT 23/19 A3004 RMK A01 T02290190  RH  078%=      5-min Rain = 0
KHA2 251724Z 17016KT 23/19 A3004 RMK A01 T02280189  RH  078%=      5-min Rain = 0
KHA2 251725Z 17018KT 23/19 A3004 RMK A01 T02280189  RH  078%=      5-min Rain = 0
KHA2 251726Z 17017KT 23/19 A3004 RMK A01 T02290189  RH  078%=      5-min Rain = 0
KHA2 251727Z 18016KT 23/19 A3004 RMK A01 T02290189  RH  078%=      5-min Rain = 0
KHA2 251728Z 17018KT 23/19 A3004 RMK A01 T02300190  RH  078%=      5-min Rain = 0
KHA2 251729Z 16015KT 23/19 A3004 RMK A01 T02300191  RH  078%=      5-min Rain = 0
KHA2 251730Z 17016G21KT 23/19 A3004 RMK A01 T02330192  RH  078%=      5-min Rain = 0
KHA2 251731Z 17016KT 24/19 A3004 RMK A01 T02350192  RH  077%=      5-min Rain = 0
KHA2 251732Z 16016KT 24/19 A3003 RMK A01 T02360192  RH  077%=      5-min Rain = 0
KHA2 251733Z 16017KT 24/19 A3003 RMK A01 T02390193  RH  076%=      5-min Rain = 0
KHA2 251734Z 18018KT 24/19 A3003 RMK A01 T02440194  RH  074%=      5-min Rain = 0
KHA2 251735Z 17016KT 25/19 A3003 RMK A01 T02460194  RH  073%=      5-min Rain = 0
KHA2 251736Z 18018KT 25/19 A3003 RMK A01 T02480193  RH  072%=      5-min Rain = 0
KHA2 251737Z 18016G21KT 25/19 A3003 RMK A01 T02470192  RH  071%=      5-min Rain = 0
KHA2 251738Z 19016KT 25/19 A3003 RMK A01 T02470191  RH  071%=      5-min Rain = 0
KHA2 251739Z 17014KT 25/19 A3003 RMK A01 T02450192  RH  072%=      5-min Rain = 0
KHA2 251740Z 16016KT 24/19 A3003 RMK A01 T02430191  RH  073%=      5-min Rain = 0
KHA2 251741Z 16014KT 24/19 A3003 RMK A01 T02410192  RH  074%=      5-min Rain = 0
KHA2 251742Z 16017KT 24/19 A3003 RMK A01 T02430193  RH  074%=      5-min Rain = 0
KHA2 251743Z 17019KT 24/19 A3003 RMK A01 T02440191  RH  072%=      5-min Rain = 0
KHA2 251744Z 18018KT 24/19 A3003 RMK A01 T02420190  RH  072%=      5-min Rain = 0
KHA2 251745Z 18014KT 24/19 A3003 RMK A01 T02400190  RH  074%=      5-min Rain = 0
KHA2 251746Z 18019KT 24/19 A3003 RMK A01 T02420192  RH  074%=      5-min Rain = 0
KHA2 251747Z 18014KT 24/19 A3003 RMK A01 T02420192  RH  073%=      5-min Rain = 0
KHA2 251748Z 16017KT 24/19 A3003 RMK A01 T02420193  RH  074%=      5-min Rain = 0
KHA2 251749Z 16017KT 24/19 A3003 RMK A01 T02410191  RH  074%=      5-min Rain = 0
KHA2 251750Z 16019KT 24/19 A3003 RMK A01 T02400191  RH  074%=      5-min Rain = 0
KHA2 251751Z 17019KT 24/19 A3003 RMK A01 T02400191  RH  074%=      5-min Rain = 0
KHA2 251752Z 16017KT 24/19 A3003 RMK A01 T02400191  RH  074%=      5-min Rain = 0
KHA2 251753Z 17019KT 24/19 A3003 RMK A01 T02410192  RH  074%=      5-min Rain = 0
KHA2 251754Z 16022KT 24/19 A3003 RMK A01 T02420192  RH  074%=      5-min Rain = 0
KHA2 251755Z 16019KT 24/19 A3003 RMK A01 T02400190  RH  074%=      5-min Rain = 0
KHA2 251756Z 17018KT 24/19 A3003 RMK A01 T02380191  RH  075%=      5-min Rain = 0
KHA2 251757Z 16018KT 24/19 A3003 RMK A01 T02390193  RH  075%=      5-min Rain = 0
KHA2 251758Z 16020KT 24/19 A3003 RMK A01 T02390191  RH  075%=      5-min Rain = 0
KHA2 251759Z 17019KT 24/19 A3003 RMK A01 T02390191  RH  075%=      5-min Rain = 0
KHA2 251800Z 17020KT 24/19 A3003 RMK A01 T02390191  RH  075%=      5-min Rain = 0
KHA2 251801Z 17019KT 24/19 A3003 RMK A01 T02410193  RH  075%=      5-min Rain = 0
KHA2 251802Z 17017KT 25/20 A3003 RMK A01 T02460195  RH  073%=      5-min Rain = 0
KHA2 251803Z 17017KT 25/20 A3003 RMK A01 T02510198  RH  072%=      5-min Rain = 0
KHA2 251804Z 17018KT 25/20 A3003 RMK A01 T02530196  RH  071%=      5-min Rain = 0
KHA2 251805Z 17024KT 25/19 A3003 RMK A01 T02510193  RH  070%=      5-min Rain = 0
KHA2 251806Z 17024KT 25/19 A3002 RMK A01 T02470189  RH  070%=      5-min Rain = 0
KHA2 251807Z 17018G23KT 25/19 A3003 RMK A01 T02450190  RH  072%=      5-min Rain = 0
KHA2 251808Z 17016KT 25/19 A3003 RMK A01 T02450194  RH  073%=      5-min Rain = 0
KHA2 251809Z 17017KT 25/20 A3003 RMK A01 T02460195  RH  073%=      5-min Rain = 0
KHA2 251810Z 17020KT 25/19 A3003 RMK A01 T02460194  RH  073%=      5-min Rain = 0
KHA2 251811Z 17017KT 24/19 A3003 RMK A01 T02430193  RH  074%=      5-min Rain = 0
KHA2 251812Z 17014KT 24/20 A3003 RMK A01 T02430195  RH  075%=      5-min Rain = 0
KHA2 251813Z 18018KT 24/19 A3003 RMK A01 T02440193  RH  073%=      5-min Rain = 0
KHA2 251814Z 18019KT 24/19 A3003 RMK A01 T02420191  RH  073%=      5-min Rain = 0
KHA2 251815Z 18018KT 24/19 A3003 RMK A01 T02390189  RH  073%=      5-min Rain = 0
KHA2 251816Z 17018KT 24/19 A3003 RMK A01 T02370190  RH  075%=      5-min Rain = 0
KHA2 251817Z 17018KT 24/19 A3003 RMK A01 T02370191  RH  075%=      5-min Rain = 0
KHA2 251818Z 16020KT 24/19 A3003 RMK A01 T02370192  RH  076%=      5-min Rain = 0
KHA2 251819Z 17022KT 24/19 A3002 RMK A01 T02360192  RH  076%=      5-min Rain = 0
KHA2 251820Z 17018KT 23/19 A3002 RMK A01 T02330191  RH  077%=      5-min Rain = 0
KHA2 251821Z 17019KT 23/19 A3002 RMK A01 T02320192  RH  078%=      5-min Rain = 0
KHA2 251822Z 17019KT 23/19 A3002 RMK A01 T02320192  RH  078%=      5-min Rain = 0
KHA2 251823Z 17020KT 23/19 A3002 RMK A01 T02310192  RH  079%=      5-min Rain = 0
KHA2 251824Z 17019KT 23/19 A3002 RMK A01 T02290192  RH  080%=      5-min Rain = 0
KHA2 251825Z 16021KT 23/19 A3002 RMK A01 T02280193  RH  081%=      5-min Rain = 0
KHA2 251826Z 16018KT 23/19 A3001 RMK A01 T02260193  RH  081%=      5-min Rain = 0
KHA2 251827Z 16019KT 23/19 A3001 RMK A01 T02250192  RH  082%=      5-min Rain = 0
KHA2 251828Z 16017KT 23/19 A3001 RMK A01 T02250193  RH  082%=      5-min Rain = 0
KHA2 251829Z 16018KT 22/19 A3001 RMK A01 T02240192  RH  082%=      5-min Rain = 0
KHA2 251830Z 17018KT 22/19 A3001 RMK A01 T02240191  RH  082%=      5-min Rain = 0
KHA2 251831Z 16019KT 22/19 A3001 RMK A01 T02230192  RH  082%=      5-min Rain = 0
KHA2 251832Z 16017KT 22/19 A3001 RMK A01 T02220191  RH  083%=      5-min Rain = 0
KHA2 251833Z 16017KT 22/19 A3001 RMK A01 T02210191  RH  083%=      5-min Rain = 0
KHA2 251834Z 16017G22KT 22/19 A3001 RMK A01 T02210191  RH  083%=      5-min Rain = 0
KHA2 251835Z 17018KT 22/19 A3001 RMK A01 T02200191  RH  083%=      5-min Rain = 0
KHA2 251836Z 16017KT 22/19 A3001 RMK A01 T02190192  RH  084%=      5-min Rain = 0
KHA2 251837Z 16016KT 22/19 A3001 RMK A01 T02190192  RH  085%=      5-min Rain = 0
KHA2 251838Z 16015KT 22/19 A3001 RMK A01 T02190192  RH  085%=      5-min Rain = 0
KHA2 251839Z 16017KT 22/19 A3001 RMK A01 T02190192  RH  085%=      5-min Rain = 0
KHA2 251840Z 16018KT 22/19 A3001 RMK A01 T02180191  RH  085%=      5-min Rain = 0
KHA2 251841Z 16019KT 22/19 A3001 RMK A01 T02170190  RH  084%=      5-min Rain = 0
KHA2 251842Z 17018KT 22/19 A3001 RMK A01 T02170190  RH  085%=      5-min Rain = 0
KHA2 251843Z 17021KT 22/19 A3001 RMK A01 T02160189  RH  085%=      5-min Rain = 0
KHA2 251844Z 16018KT 22/19 A3001 RMK A01 T02150190  RH  085%=      5-min Rain = 0
KHA2 251845Z 17020KT 21/19 A3001 RMK A01 T02140190  RH  086%=      5-min Rain = 0
KHA2 251846Z 17018KT 21/19 A30 RMK A01 T02140190  RH  087%=      5-min Rain = 0
KHA2 251847Z 17017KT 21/19 A30 RMK A01 T02130191  RH  087%=      5-min Rain = 0
KHA2 251848Z 17020KT 21/19 A30 RMK A01 T02130191  RH  087%=      5-min Rain = 0
KHA2 251849Z 17018KT 21/19 A30 RMK A01 T02130191  RH  087%=      5-min Rain = 0
KHA2 251850Z 17017KT 21/19 A30 RMK A01 T02130191  RH  087%=      5-min Rain = 0
KHA2 251851Z 17015KT 21/19 A30 RMK A01 T02130191  RH  087%=      5-min Rain = 0
KHA2 251852Z 17015KT 21/19 A30 RMK A01 T02130191  RH  088%=      5-min Rain = 0
KHA2 251853Z 17018KT 21/19 A30 RMK A01 T02140192  RH  088%=      5-min Rain = 0
KHA2 251854Z 17015KT 21/19 A30 RMK A01 T02130192  RH  088%=      5-min Rain = 0
KHA2 251855Z 17018KT 21/19 A30 RMK A01 T02130191  RH  088%=      5-min Rain = 0
KHA2 251856Z 17017KT 21/19 A30 RMK A01 T02120191  RH  088%=      5-min Rain = 0
KHA2 251857Z 17018KT 21/19 A30 RMK A01 T02120191  RH  088%=      5-min Rain = 0
KHA2 251858Z 18017KT 21/19 A30 RMK A01 T02120191  RH  088%=      5-min Rain = 0
KHA2 251859Z 18018KT 21/19 A30 RMK A01 T02120191  RH  088%=      5-min Rain = 0
KHA2 251900Z 18016KT 21/19 A3001 RMK A01 T02120190  RH  088%=      5-min Rain = 0
KHA2 251901Z 18018G24KT 21/19 A3001 RMK A01 T02110190  RH  088%=      5-min Rain = 0
KHA2 251902Z 18020G25KT 21/19 A3001 RMK A01 T02110190  RH  088%=      5-min Rain = 0
KHA2 251903Z 18019KT 21/19 A3001 RMK A01 T02110191  RH  088%=      5-min Rain = 0
KHA2 251904Z 18015KT 21/19 A3001 RMK A01 T02110192  RH  089%=      5-min Rain = 0
KHA2 251905Z 18016KT 21/19 A3001 RMK A01 T02100192  RH  089%=      5-min Rain = 0
KHA2 251906Z 18016KT 21/19 A3001 RMK A01 T02100192  RH  089%=      5-min Rain = 0
KHA2 251907Z 18019KT 21/19 A3001 RMK A01 T02100192  RH  089%=      5-min Rain = 0
KHA2 251908Z 18017KT 21/19 A3001 RMK A01 T02090191  RH  089%=      5-min Rain = 0
KHA2 251909Z 18018KT 21/19 A3001 RMK A01 T02080191  RH  090%=      5-min Rain = 0
KHA2 251910Z 18019KT 21/19 A3001 RMK A01 T02080192  RH  091%=      5-min Rain = 0
KHA2 251911Z 18016KT 21/19 A3001 RMK A01 T02070192  RH  091%=      5-min Rain = 0
KHA2 251912Z 17015KT 21/19 A3001 RMK A01 T02060193  RH  092%=      5-min Rain = 0
KHA2 251913Z 17015KT 21/19 A3001 RMK A01 T02050193  RH  093%=      5-min Rain = 0
KHA2 251914Z 17014KT 20/19 A3001 RMK A01 T02040193  RH  093%=      5-min Rain = 0
KHA2 251915Z 17015KT 20/19 A3001 RMK A01 T02040194  RH  093%=      5-min Rain = 0
KHA2 251916Z 17015KT 20/19 A3001 RMK A01 T02040193  RH  094%=      5-min Rain = 0
KHA2 251917Z 16015KT 20/19 A3001 RMK A01 T02040193  RH  094%=      5-min Rain = 0.01
KHA2 251918Z 16015KT 20/19 A3001 RMK A01 T02040193  RH  094%=      5-min Rain = 0
KHA2 251919Z 16015KT 20/19 A3001 RMK A01 T02040193  RH  094%=      5-min Rain = 0
KHA2 251920Z 16014KT 20/19 A3001 RMK A01 T02030193  RH  094%=      5-min Rain = 0
KHA2 251921Z 16015KT 20/19 A3001 RMK A01 T02030193  RH  094%=      5-min Rain = 0
KHA2 251922Z 16017KT 20/19 A3001 RMK A01 T02030193  RH  094%=      5-min Rain = 0
KHA2 251923Z 17017KT 20/19 A3001 RMK A01 T02020193  RH  094%=      5-min Rain = 0
KHA2 251924Z 17016KT 20/19 A3001 RMK A01 T02020193  RH  094%=      5-min Rain = 0
KHA2 251925Z 16015KT 20/19 A3001 RMK A01 T02020193  RH  094%=      5-min Rain = 0
KHA2 251926Z 16014KT 20/19 A3001 RMK A01 T02030194  RH  095%=      5-min Rain = 0
KHA2 251927Z 16015KT 20/19 A3001 RMK A01 T02020194  RH  095%=      5-min Rain = 0
KHA2 251928Z 16015KT 20/19 A3001 RMK A01 T02020194  RH  095%=      5-min Rain = 0
KHA2 251929Z 16015KT 20/19 A30 RMK A01 T02010193  RH  095%=      5-min Rain = 0
KHA2 251930Z 16015KT 20/19 A30 RMK A01 T02010193  RH  095%=      5-min Rain = 0
KHA2 251931Z 17013KT 20/19 A30 RMK A01 T02010194  RH  095%=      5-min Rain = 0
KHA2 251932Z 17012G17KT 20/19 A30 RMK A01 T02010193  RH  096%=      5-min Rain = 0
KHA2 251933Z 17015KT 20/19 A30 RMK A01 T02010194  RH  096%=      5-min Rain = 0
KHA2 251934Z 18015KT 20/19 A30 RMK A01 T02000194  RH  096%=      5-min Rain = 0
KHA2 251935Z 18012KT 20/19 A30 RMK A01 T02000193  RH  096%=      5-min Rain = 0.01
KHA2 251936Z 17011KT 20/19 A30 RMK A01 T02000193  RH  096%=      5-min Rain = 0
KHA2 251937Z 17012KT 20/19 A30 RMK A01 T02000193  RH  096%=      5-min Rain = 0
KHA2 251938Z 17012KT 20/19 A2999 RMK A01 T02000193  RH  096%=      5-min Rain = 0
KHA2 251939Z 16012KT 20/19 A2999 RMK A01 T02000193  RH  096%=      5-min Rain = 0
KHA2 251940Z 16012KT 20/19 A2998 RMK A01 T02000193  RH  096%=      5-min Rain = 0
KHA2 251941Z 16014KT 20/19 A2998 RMK A01 T01990193  RH  096%=      5-min Rain = 0
KHA2 251942Z 16015KT 20/19 A2999 RMK A01 T01990193  RH  096%=      5-min Rain = 0
KHA2 251943Z 16013KT 20/19 A2999 RMK A01 T02000193  RH  096%=      5-min Rain = 0
KHA2 251944Z 17015KT 20/19 A2999 RMK A01 T02000193  RH  096%=      5-min Rain = 0
KHA2 251945Z 17014KT 20/19 A2999 RMK A01 T01990193  RH  096%=      5-min Rain = 0
KHA2 251946Z 17012KT 20/19 A2999 RMK A01 T01990193  RH  096%=      5-min Rain = 0
KHA2 251947Z 17014KT 20/19 A2999 RMK A01 T01990193  RH  096%=      5-min Rain = 0
KHA2 251948Z 17013KT 20/19 A2999 RMK A01 T01980192  RH  096%=      5-min Rain = 0
KHA2 251949Z 17013KT 20/19 A2999 RMK A01 T01990193  RH  096%=      5-min Rain = 0
KHA2 251950Z 17012KT 20/19 A2999 RMK A01 T01990193  RH  096%=      5-min Rain = 0
KHA2 251951Z 17010KT 20/19 A2999 RMK A01 T01990193  RH  097%=      5-min Rain = 0
KHA2 251952Z 18012KT 20/19 A2999 RMK A01 T01990193  RH  097%=      5-min Rain = 0
KHA2 251953Z 18012KT 20/19 A30 RMK A01 T01980193  RH  097%=      5-min Rain = 0
KHA2 251954Z 19012KT 20/19 A30 RMK A01 T01990193  RH  097%=      5-min Rain = 0.01
KHA2 251955Z 18012KT 20/19 A30 RMK A01 T01990193  RH  097%=      5-min Rain = 0
KHA2 251956Z 18012KT 20/19 A30 RMK A01 T01990193  RH  097%=      5-min Rain = 0
KHA2 251957Z 19012KT 20/19 A30 RMK A01 T01990194  RH  097%=      5-min Rain = 0
KHA2 251958Z 19012KT 20/19 A3001 RMK A01 T01990193  RH  097%=      5-min Rain = 0
KHA2 251959Z 19012KT 20/19 A3001 RMK A01 T01990194  RH  097%=      5-min Rain = 0
KHA2 252000Z 20012KT 20/19 A3001 RMK A01 T01990194  RH  097%=      5-min Rain = 0
KHA2 252001Z 20012KT 20/19 A3001 RMK A01 T01990194  RH  097%=      5-min Rain = 0
KHA2 252002Z 19013KT 20/19 A3001 RMK A01 T01990194  RH  097%=      5-min Rain = 0
KHA2 252003Z 20010KT 20/19 A3001 RMK A01 T01990194  RH  097%=      5-min Rain = 0.01
KHA2 252004Z 19010KT 20/19 A3001 RMK A01 T02000194  RH  097%=      5-min Rain = 0.01
KHA2 252005Z 19011KT 20/19 A3001 RMK A01 T02000194  RH  097%=      5-min Rain = 0.01
KHA2 252006Z 18010KT 20/19 A3001 RMK A01 T01990194  RH  097%=      5-min Rain = 0.01
KHA2 252007Z 18012KT 20/19 A30 RMK A01 T01990194  RH  097%=      5-min Rain = 0
KHA2 252008Z 16012KT 20/19 A2999 RMK A01 T01990193  RH  097%=      5-min Rain = 0.01
KHA2 252009Z 16014KT 20/19 A2999 RMK A01 T01990193  RH  097%=      5-min Rain = 0.02
KHA2 252010Z 16014KT 20/19 A2999 RMK A01 T01990194  RH  097%=      5-min Rain = 0.02
KHA2 252011Z 16015KT 20/19 A2998 RMK A01 T01980193  RH  097%=      5-min Rain = 0.01
KHA2 252012Z 17014KT 20/19 A2999 RMK A01 T01980193  RH  097%=      5-min Rain = 0.01
KHA2 252013Z 17017KT 20/19 A2999 RMK A01 T01970193  RH  097%=      5-min Rain = 0
KHA2 252014Z 16018KT 20/19 A30 RMK A01 T01970192  RH  097%=      5-min Rain = 0
KHA2 252015Z 16015KT 20/19 A30 RMK A01 T01980193  RH  097%=      5-min Rain = 0
KHA2 252016Z 17014KT 20/19 A3001 RMK A01 T01980193  RH  097%=      5-min Rain = 0
KHA2 252017Z 17015KT 20/19 A3001 RMK A01 T01980193  RH  097%=      5-min Rain = 0
KHA2 252018Z 17014KT 20/19 A3001 RMK A01 T01980193  RH  097%=      5-min Rain = 0
KHA2 252019Z 18013KT 20/19 A3001 RMK A01 T01990194  RH  097%=      5-min Rain = 0
KHA2 252020Z 17012KT 20/19 A3001 RMK A01 T01990193  RH  097%=      5-min Rain = 0
KHA2 252021Z 18012KT 20/19 A3001 RMK A01 T01980193  RH  097%=      5-min Rain = 0
KHA2 252022Z 18010KT 20/19 A3001 RMK A01 T01990193  RH  097%=      5-min Rain = 0
KHA2 252023Z 17009KT 20/19 A30 RMK A01 T01990194  RH  097%=      5-min Rain = 0
KHA2 252024Z 16010KT 20/19 A2999 RMK A01 T01980193  RH  097%=      5-min Rain = 0
KHA2 252025Z 15011KT 20/19 A2999 RMK A01 T01990194  RH  097%=      5-min Rain = 0
KHA2 252026Z 16010KT 20/19 A2998 RMK A01 T01990194  RH  097%=      5-min Rain = 0
KHA2 252027Z 15010KT 20/19 A2998 RMK A01 T01990194  RH  097%=      5-min Rain = 0
KHA2 252028Z 16010KT 20/19 A2997 RMK A01 T01990194  RH  097%=      5-min Rain = 0
KHA2 252029Z 14011KT 20/19 A2997 RMK A01 T01980194  RH  097%=      5-min Rain = 0
KHA2 252030Z 15013KT 20/19 A2997 RMK A01 T01980193  RH  097%=      5-min Rain = 0
KHA2 252031Z 15012KT 20/19 A2997 RMK A01 T01980194  RH  097%=      5-min Rain = 0
KHA2 252032Z 15012KT 20/19 A2997 RMK A01 T01980193  RH  097%=      5-min Rain = 0
KHA2 252033Z 14014KT 20/19 A2997 RMK A01 T01980193  RH  097%=      5-min Rain = 0
KHA2 252034Z 14014KT 20/19 A2997 RMK A01 T01980193  RH  097%=      5-min Rain = 0
KHA2 252035Z 14015KT 20/19 A2997 RMK A01 T01980193  RH  097%=      5-min Rain = 0
KHA2 252036Z 14016KT 20/19 A2996 RMK A01 T01970193  RH  097%=      5-min Rain = 0
KHA2 252037Z 14017KT 20/19 A2996 RMK A01 T01970193  RH  097%=      5-min Rain = 0
KHA2 252038Z 15017KT 20/19 A2997 RMK A01 T01970193  RH  097%=      5-min Rain = 0
KHA2 252039Z 15021KT 20/19 A2997 RMK A01 T01970193  RH  097%=      5-min Rain = 0
KHA2 252040Z 14017KT 20/19 A2997 RMK A01 T01970192  RH  097%=      5-min Rain = 0
KHA2 252041Z 15018KT 20/19 A2997 RMK A01 T01970192  RH  097%=      5-min Rain = 0
KHA2 252042Z 16021KT 20/19 A2997 RMK A01 T01980193  RH  097%=      5-min Rain = 0
KHA2 252043Z 16019KT 20/19 A2997 RMK A01 T01980193  RH  097%=      5-min Rain = 0
KHA2 252044Z 16023G28KT 20/19 A2998 RMK A01 T01980193  RH  097%=      5-min Rain = 0
KHA2 252045Z 17019KT 20/19 A2998 RMK A01 T01980193  RH  097%=      5-min Rain = 0
KHA2 252046Z 16022KT 20/19 A2998 RMK A01 T01980193  RH  097%=      5-min Rain = 0
KHA2 252047Z 16023KT 20/19 A2998 RMK A01 T01980192  RH  097%=      5-min Rain = 0
KHA2 252048Z 16025KT 20/19 A2998 RMK A01 T01960189  RH  095%=      5-min Rain = 0
KHA2 252049Z 16020G25KT 20/19 A2998 RMK A01 T01950185  RH  094%=      5-min Rain = 0
KHA2 252050Z 17016KT 19/19 A2998 RMK A01 T01940185  RH  094%=      5-min Rain = 0
KHA2 252051Z 16016KT 19/18 A2998 RMK A01 T01940184  RH  094%=      5-min Rain = 0
KHA2 252052Z 16015KT 19/18 A2998 RMK A01 T01930183  RH  094%=      5-min Rain = 0
KHA2 252053Z 16018KT 19/18 A2997 RMK A01 T01920178  RH  092%=      5-min Rain = 0
KHA2 252054Z 16016KT 19/17 A2997 RMK A01 T01910174  RH  090%=      5-min Rain = 0
KHA2 252055Z 16014KT 19/17 A2997 RMK A01 T01910173  RH  089%=      5-min Rain = 0
KHA2 252056Z 16012KT 19/17 A2997 RMK A01 T01910173  RH  089%=      5-min Rain = 0
KHA2 252057Z 16010KT 19/17 A2997 RMK A01 T01910172  RH  089%=      5-min Rain = 0
KHA2 252058Z 15009KT 19/17 A2997 RMK A01 T01910172  RH  089%=      5-min Rain = 0
KHA2 252059Z 16010KT 19/17 A2997 RMK A01 T01920170  RH  087%=      5-min Rain = 0
KHA2 252100Z 15008KT 19/17 A2997 RMK A01 T01930170  RH  087%=      5-min Rain = 0
KHA2 252101Z 15009KT 19/17 A2996 RMK A01 T01940170  RH  086%=      5-min Rain = 0
KHA2 252102Z 15008KT 20/17 A2997 RMK A01 T01950170  RH  086%=      5-min Rain = 0
KHA2 252103Z 15010KT 20/17 A2997 RMK A01 T01960173  RH  087%=      5-min Rain = 0
KHA2 252104Z 16009KT 20/17 A2997 RMK A01 T01960172  RH  086%=      5-min Rain = 0
KHA2 252105Z 16010KT 20/17 A2997 RMK A01 T01960172  RH  086%=      5-min Rain = 0
KHA2 252106Z 15010KT 20/17 A2997 RMK A01 T01960172  RH  086%=      5-min Rain = 0
KHA2 252107Z 16010KT 20/17 A2997 RMK A01 T01960174  RH  087%=      5-min Rain = 0
KHA2 252108Z 15012KT 20/17 A2997 RMK A01 T01960171  RH  085%=      5-min Rain = 0
KHA2 252109Z 15011KT 20/17 A2997 RMK A01 T01960167  RH  083%=      5-min Rain = 0
KHA2 252110Z 14011KT 20/17 A2998 RMK A01 T01960166  RH  083%=      5-min Rain = 0
KHA2 252111Z 14013KT 20/16 A2998 RMK A01 T01960164  RH  082%=      5-min Rain = 0
KHA2 252112Z 15017KT 20/16 A2997 RMK A01 T01950161  RH  081%=      5-min Rain = 0
KHA2 252113Z 14017KT 19/16 A2997 RMK A01 T01930159  RH  081%=      5-min Rain = 0
KHA2 252114Z 14018KT 19/16 A2997 RMK A01 T01910158  RH  081%=      5-min Rain = 0
KHA2 252115Z 14017KT 19/16 A2997 RMK A01 T01900158  RH  082%=      5-min Rain = 0
KHA2 252116Z 14017KT 19/16 A2997 RMK A01 T01880159  RH  083%=      5-min Rain = 0
KHA2 252117Z 14016KT 19/16 A2997 RMK A01 T01870160  RH  084%=      5-min Rain = 0
KHA2 252118Z 14014KT 19/16 A2997 RMK A01 T01860159  RH  084%=      5-min Rain = 0
KHA2 252119Z 14013KT 19/16 A2997 RMK A01 T01860159  RH  085%=      5-min Rain = 0
KHA2 252120Z 14013KT 19/16 A2997 RMK A01 T01850160  RH  085%=      5-min Rain = 0
KHA2 252121Z 14013KT 19/16 A2997 RMK A01 T01850160  RH  085%=      5-min Rain = 0
KHA2 252122Z 14011KT 19/16 A2997 RMK A01 T01850161  RH  086%=      5-min Rain = 0
KHA2 252123Z 15011KT 19/16 A2997 RMK A01 T01850162  RH  086%=      5-min Rain = 0
KHA2 252124Z 15011KT 19/16 A2997 RMK A01 T01860164  RH  087%=      5-min Rain = 0
KHA2 252125Z 15011KT 19/17 A2997 RMK A01 T01870165  RH  087%=      5-min Rain = 0
KHA2 252126Z 15012KT 19/17 A2997 RMK A01 T01880166  RH  087%=      5-min Rain = 0
KHA2 252127Z 15010KT 19/17 A2997 RMK A01 T01900167  RH  087%=      5-min Rain = 0
KHA2 252128Z 15009KT 19/17 A2997 RMK A01 T01910169  RH  087%=      5-min Rain = 0
KHA2 252129Z 15009KT 19/17 A2997 RMK A01 T01930170  RH  087%=      5-min Rain = 0
KHA2 252130Z 15008KT 20/17 A2997 RMK A01 T01950173  RH  087%=      5-min Rain = 0
KHA2 252131Z 15008KT 20/17 A2997 RMK A01 T01970173  RH  086%=      5-min Rain = 0
KHA2 252132Z 15007KT 20/17 A2997 RMK A01 T01990174  RH  085%=      5-min Rain = 0
KHA2 252133Z 15008KT 20/17 A2997 RMK A01 T02010174  RH  084%=      5-min Rain = 0
KHA2 252134Z 15006KT 20/17 A2997 RMK A01 T02020174  RH  084%=      5-min Rain = 0
KHA2 252135Z 16006KT 20/18 A2997 RMK A01 T02040177  RH  085%=      5-min Rain = 0
KHA2 252136Z 17009KT 21/18 A2997 RMK A01 T02060179  RH  084%=      5-min Rain = 0
KHA2 252137Z 17009KT 21/18 A2997 RMK A01 T02090177  RH  082%=      5-min Rain = 0
KHA2 252138Z 17009KT 21/18 A2997 RMK A01 T02110178  RH  081%=      5-min Rain = 0
KHA2 252139Z 17009KT 21/18 A2997 RMK A01 T02130175  RH  079%=      5-min Rain = 0
KHA2 252140Z 17011KT 21/17 A2997 RMK A01 T02130172  RH  077%=      5-min Rain = 0
KHA2 252141Z 17011KT 21/17 A2997 RMK A01 T02130171  RH  077%=      5-min Rain = 0
KHA2 252142Z 17011KT 21/17 A2997 RMK A01 T02140172  RH  077%=      5-min Rain = 0
KHA2 252143Z 17009KT 21/17 A2997 RMK A01 T02140174  RH  078%=      5-min Rain = 0
KHA2 252144Z 17009KT 21/18 A2997 RMK A01 T02140175  RH  079%=      5-min Rain = 0
KHA2 252145Z 17009KT 21/18 A2997 RMK A01 T02140176  RH  079%=      5-min Rain = 0
KHA2 252146Z 17008KT 21/17 A2997 RMK A01 T02130174  RH  078%=      5-min Rain = 0
KHA2 252147Z 16009KT 21/17 A2997 RMK A01 T02130174  RH  079%=      5-min Rain = 0
KHA2 252148Z 16009KT 21/17 A2997 RMK A01 T02120170  RH  077%=      5-min Rain = 0
KHA2 252149Z 15008KT 21/17 A2997 RMK A01 T02120169  RH  077%=      5-min Rain = 0
KHA2 252150Z 15009KT 21/17 A2997 RMK A01 T02120171  RH  077%=      5-min Rain = 0
KHA2 252151Z 15008KT 21/17 A2997 RMK A01 T02120173  RH  078%=      5-min Rain = 0
KHA2 252152Z 15010KT 21/17 A2997 RMK A01 T02120174  RH  079%=      5-min Rain = 0
KHA2 252153Z 17009KT 21/17 A2997 RMK A01 T02110174  RH  080%=      5-min Rain = 0
KHA2 252154Z 17007KT 21/18 A2997 RMK A01 T02100176  RH  081%=      5-min Rain = 0
KHA2 252155Z 16008KT 21/18 A2997 RMK A01 T02100177  RH  081%=      5-min Rain = 0
KHA2 252156Z 16011KT 21/18 A2998 RMK A01 T02090178  RH  082%=      5-min Rain = 0
KHA2 252157Z 16013KT 21/18 A2998 RMK A01 T02090176  RH  081%=      5-min Rain = 0
KHA2 252158Z 15012KT 21/18 A2998 RMK A01 T02080175  RH  081%=      5-min Rain = 0
KHA2 252159Z 15011KT 21/18 A2998 RMK A01 T02070175  RH  081%=      5-min Rain = 0
KHA2 252200Z 15010KT 21/17 A2998 RMK A01 T02070172  RH  081%=      5-min Rain = 0
KHA2 252201Z 15011KT 21/17 A2998 RMK A01 T02050170  RH  080%=      5-min Rain = 0
KHA2 252202Z 15009KT 20/17 A2997 RMK A01 T02040168  RH  080%=      5-min Rain = 0
KHA2 252203Z 14008KT 20/17 A2997 RMK A01 T02040166  RH  079%=      5-min Rain = 0
KHA2 252204Z 14007KT 20/17 A2997 RMK A01 T02040167  RH  079%=      5-min Rain = 0
KHA2 252205Z 14005KT 20/17 A2997 RMK A01 T02040168  RH  080%=      5-min Rain = 0
KHA2 252206Z 15005KT 20/17 A2997 RMK A01 T02040169  RH  080%=      5-min Rain = 0
KHA2 252207Z 15006KT 20/16 A2998 RMK A01 T02040164  RH  078%=      5-min Rain = 0
KHA2 252208Z 16007KT 20/16 A2998 RMK A01 T02040164  RH  078%=      5-min Rain = 0
KHA2 252209Z 16008KT 21/16 A2998 RMK A01 T02050163  RH  077%=      5-min Rain = 0
KHA2 252210Z 16007KT 21/16 A2999 RMK A01 T02050164  RH  077%=      5-min Rain = 0
KHA2 252211Z 16008KT 21/17 A2999 RMK A01 T02060166  RH  078%=      5-min Rain = 0
KHA2 252212Z 16008KT 21/17 A2999 RMK A01 T02070166  RH  078%=      5-min Rain = 0
KHA2 252213Z 15009KT 21/16 A2998 RMK A01 T02060164  RH  076%=      5-min Rain = 0
KHA2 252214Z 15009KT 21/17 A2998 RMK A01 T02060165  RH  077%=      5-min Rain = 0
KHA2 252215Z 15008KT 21/17 A2997 RMK A01 T02060167  RH  078%=      5-min Rain = 0
KHA2 252216Z 15008KT 21/17 A2997 RMK A01 T02050167  RH  079%=      5-min Rain = 0
KHA2 252217Z 14008KT 21/17 A2997 RMK A01 T02050168  RH  079%=      5-min Rain = 0
KHA2 252218Z 13007KT 21/17 A2997 RMK A01 T02050171  RH  081%=      5-min Rain = 0
KHA2 252219Z 14007KT 21/17 A2997 RMK A01 T02050173  RH  082%=      5-min Rain = 0
KHA2 252220Z 13005KT 21/17 A2997 RMK A01 T02050174  RH  082%=      5-min Rain = 0
KHA2 252221Z 14006KT 21/17 A2997 RMK A01 T02060173  RH  082%=      5-min Rain = 0
KHA2 252222Z 12005KT 21/17 A2997 RMK A01 T02050173  RH  082%=      5-min Rain = 0
KHA2 252223Z 13004KT 21/17 A2997 RMK A01 T02050171  RH  080%=      5-min Rain = 0
KHA2 252224Z 13005KT 21/17 A2996 RMK A01 T02050173  RH  081%=      5-min Rain = 0
KHA2 252225Z 13005KT 21/17 A2996 RMK A01 T02050171  RH  081%=      5-min Rain = 0
KHA2 252226Z 14006KT 21/17 A2996 RMK A01 T02060171  RH  080%=      5-min Rain = 0
KHA2 252227Z 14005KT 21/17 A2996 RMK A01 T02050170  RH  080%=      5-min Rain = 0
KHA2 252228Z 12005KT 21/17 A2996 RMK A01 T02050173  RH  082%=      5-min Rain = 0
KHA2 252229Z 09003KT 21/17 A2996 RMK A01 T02050173  RH  082%=      5-min Rain = 0
KHA2 252230Z 08004KT 21/17 A2996 RMK A01 T02060172  RH  081%=      5-min Rain = 0
KHA2 252231Z 10006KT 21/17 A2996 RMK A01 T02060173  RH  082%=      5-min Rain = 0
KHA2 252232Z 10006KT 21/17 A2996 RMK A01 T02050174  RH  082%=      5-min Rain = 0
KHA2 252233Z 11005KT 21/17 A2996 RMK A01 T02050174  RH  082%=      5-min Rain = 0
KHA2 252234Z 13007KT 21/17 A2997 RMK A01 T02050174  RH  082%=      5-min Rain = 0
KHA2 252235Z 13009KT 21/18 A2997 RMK A01 T02050175  RH  083%=      5-min Rain = 0
KHA2 252236Z 13008KT 21/17 A2997 RMK A01 T02050173  RH  082%=      5-min Rain = 0
KHA2 252237Z 13006KT 21/17 A2997 RMK A01 T02050174  RH  082%=      5-min Rain = 0
KHA2 252238Z 13005KT 21/17 A2997 RMK A01 T02050171  RH  081%=      5-min Rain = 0
KHA2 252239Z 13005KT 21/17 A2997 RMK A01 T02050171  RH  081%=      5-min Rain = 0
KHA2 252240Z 12005KT 21/17 A2997 RMK A01 T02050171  RH  081%=      5-min Rain = 0
KHA2 252241Z 12004KT 21/17 A2997 RMK A01 T02050172  RH  081%=      5-min Rain = 0
KHA2 252242Z 12004KT 21/17 A2998 RMK A01 T02050173  RH  082%=      5-min Rain = 0
KHA2 252243Z 12004KT 21/17 A2998 RMK A01 T02050171  RH  081%=      5-min Rain = 0
KHA2 252244Z 14003KT 21/17 A2998 RMK A01 T02050169  RH  080%=      5-min Rain = 0
KHA2 252245Z 12002KT 21/17 A2998 RMK A01 T02050169  RH  080%=      5-min Rain = 0
KHA2 252246Z 12004KT 20/17 A2998 RMK A01 T02040171  RH  081%=      5-min Rain = 0
KHA2 252247Z 13006KT 20/17 A2999 RMK A01 T02040169  RH  080%=      5-min Rain = 0
KHA2 252248Z 12006KT 20/17 A2999 RMK A01 T02040171  RH  081%=      5-min Rain = 0
KHA2 252249Z 14006KT 20/17 A2999 RMK A01 T02030170  RH  081%=      5-min Rain = 0
KHA2 252250Z 14008KT 20/17 A2999 RMK A01 T02030171  RH  082%=      5-min Rain = 0
KHA2 252251Z 13008KT 20/17 A2999 RMK A01 T02020171  RH  082%=      5-min Rain = 0
KHA2 252252Z 12009KT 20/17 A2998 RMK A01 T02010172  RH  083%=      5-min Rain = 0
KHA2 252253Z 13010KT 20/17 A2998 RMK A01 T02000172  RH  084%=      5-min Rain = 0
KHA2 252254Z 14010KT 20/17 A2998 RMK A01 T01990170  RH  083%=      5-min Rain = 0
KHA2 252255Z 13008KT 20/17 A2998 RMK A01 T01980170  RH  084%=      5-min Rain = 0
KHA2 252256Z 12009KT 20/17 A2998 RMK A01 T01970170  RH  084%=      5-min Rain = 0
KHA2 252257Z 11012KT 20/17 A2997 RMK A01 T01970169  RH  084%=      5-min Rain = 0
KHA2 252258Z 11011KT 20/17 A2997 RMK A01 T01960168  RH  084%=      5-min Rain = 0
KHA2 252259Z 11012KT 20/17 A2996 RMK A01 T01950168  RH  085%=      5-min Rain = 0
KHA2 252300Z 11012KT 19/17 A2996 RMK A01 T01940168  RH  085%=      5-min Rain = 0
KHA2 252301Z 12016KT 19/17 A2996 RMK A01 T01930170  RH  086%=      5-min Rain = 0
KHA2 252302Z 12015KT 19/17 A2995 RMK A01 T01910168  RH  087%=      5-min Rain = 0
KHA2 252303Z 13013KT 19/17 A2995 RMK A01 T01890169  RH  088%=      5-min Rain = 0
KHA2 252304Z 12009KT 19/17 A2995 RMK A01 T01880169  RH  089%=      5-min Rain = 0
KHA2 252305Z 11009KT 19/17 A2995 RMK A01 T01870170  RH  089%=      5-min Rain = 0
KHA2 252306Z 13008G13KT 19/17 A2995 RMK A01 T01870168  RH  089%=      5-min Rain = 0
KHA2 252307Z 12006KT 19/17 A2995 RMK A01 T01860166  RH  088%=      5-min Rain = 0
KHA2 252308Z 13006KT 19/17 A2996 RMK A01 T01870167  RH  088%=      5-min Rain = 0
KHA2 252309Z 14006KT 19/17 A2996 RMK A01 T01860165  RH  088%=      5-min Rain = 0
KHA2 252310Z 16006KT 19/17 A2997 RMK A01 T01860165  RH  088%=      5-min Rain = 0
KHA2 252311Z 16004KT 19/17 A2997 RMK A01 T01860165  RH  088%=      5-min Rain = 0
KHA2 252312Z 16006KT 19/16 A2997 RMK A01 T01850164  RH  088%=      5-min Rain = 0
KHA2 252313Z 15008KT 19/16 A2998 RMK A01 T01850164  RH  088%=      5-min Rain = 0
KHA2 252314Z 15010KT 19/16 A2998 RMK A01 T01850164  RH  088%=      5-min Rain = 0
KHA2 252315Z 15010KT 18/16 A2998 RMK A01 T01840162  RH  087%=      5-min Rain = 0
KHA2 252316Z 15010KT 18/16 A2998 RMK A01 T01840163  RH  087%=      5-min Rain = 0
KHA2 252317Z 15009KT 18/16 A2998 RMK A01 T01840161  RH  087%=      5-min Rain = 0
KHA2 252318Z 15007KT 18/16 A2998 RMK A01 T01840161  RH  087%=      5-min Rain = 0
KHA2 252319Z 15006KT 18/16 A2998 RMK A01 T01830161  RH  087%=      5-min Rain = 0
KHA2 252320Z 15006KT 18/16 A2999 RMK A01 T01830161  RH  087%=      5-min Rain = 0
KHA2 252321Z 15006KT 18/16 A2999 RMK A01 T01840161  RH  087%=      5-min Rain = 0
KHA2 252322Z 15006KT 18/16 A2999 RMK A01 T01830161  RH  087%=      5-min Rain = 0
KHA2 252323Z 13006KT 18/16 A2999 RMK A01 T01830161  RH  087%=      5-min Rain = 0
KHA2 252324Z 14008KT 18/16 A2999 RMK A01 T01840160  RH  086%=      5-min Rain = 0
KHA2 252325Z 15007KT 18/16 A2999 RMK A01 T01830159  RH  086%=      5-min Rain = 0
KHA2 252326Z 15008KT 18/16 A2999 RMK A01 T01830159  RH  085%=      5-min Rain = 0
KHA2 252327Z 15008KT 18/16 A2999 RMK A01 T01840159  RH  086%=      5-min Rain = 0
KHA2 252328Z 14008KT 18/16 A2999 RMK A01 T01840161  RH  086%=      5-min Rain = 0
KHA2 252329Z 13008KT 18/16 A2999 RMK A01 T01830161  RH  087%=      5-min Rain = 0
KHA2 252330Z 12010KT 18/16 A2998 RMK A01 T01830161  RH  087%=      5-min Rain = 0
KHA2 252331Z 13011KT 18/16 A2997 RMK A01 T01830161  RH  087%=      5-min Rain = 0
KHA2 252332Z 13012KT 18/16 A2996 RMK A01 T01820160  RH  087%=      5-min Rain = 0
KHA2 252333Z 12013KT 18/16 A2996 RMK A01 T01810160  RH  087%=      5-min Rain = 0.01
KHA2 252334Z 12013KT 18/16 A2995 RMK A01 T01810160  RH  088%=      5-min Rain = 0
KHA2 252335Z 12016KT 18/16 A2995 RMK A01 T01810161  RH  088%=      5-min Rain = 0
KHA2 252336Z 12015KT 18/16 A2996 RMK A01 T01810161  RH  088%=      5-min Rain = 0
KHA2 252337Z 13014KT 18/16 A2996 RMK A01 T01800162  RH  089%=      5-min Rain = 0
KHA2 252338Z 14013KT 18/16 A2997 RMK A01 T01790162  RH  090%=      5-min Rain = 0
KHA2 252339Z 14013KT 18/16 A2997 RMK A01 T01780162  RH  090%=      5-min Rain = 0
KHA2 252340Z 14011KT 18/16 A2997 RMK A01 T01780163  RH  091%=      5-min Rain = 0
KHA2 252341Z 14012KT 18/16 A2997 RMK A01 T01770163  RH  091%=      5-min Rain = 0
KHA2 252342Z 14010KT 18/16 A2997 RMK A01 T01770163  RH  092%=      5-min Rain = 0
KHA2 252343Z 14008KT 18/16 A2997 RMK A01 T01760162  RH  092%=      5-min Rain = 0
KHA2 252344Z 13008KT 18/16 A2997 RMK A01 T01760162  RH  091%=      5-min Rain = 0
KHA2 252345Z 12007KT 18/16 A2997 RMK A01 T01770161  RH  090%=      5-min Rain = 0
KHA2 252346Z 12006KT 18/16 A2997 RMK A01 T01770161  RH  090%=      5-min Rain = 0
KHA2 252347Z 11005KT 18/16 A2997 RMK A01 T01770161  RH  090%=      5-min Rain = 0
KHA2 252348Z 10004KT 18/16 A2997 RMK A01 T01780160  RH  090%=      5-min Rain = 0
KHA2 252349Z 12003KT 18/16 A2997 RMK A01 T01780159  RH  089%=      5-min Rain = 0
KHA2 252350Z 17002KT 18/16 A2998 RMK A01 T01780157  RH  088%=      5-min Rain = 0
KHA2 252351Z 18003KT 18/16 A2998 RMK A01 T01790157  RH  087%=      5-min Rain = 0
KHA2 252352Z 16004KT 18/16 A2998 RMK A01 T01790158  RH  087%=      5-min Rain = 0
KHA2 252353Z 17005KT 18/16 A2999 RMK A01 T01790156  RH  086%=      5-min Rain = 0
KHA2 252354Z 17005KT 18/16 A2999 RMK A01 T01790157  RH  087%=      5-min Rain = 0
KHA2 252355Z 16007KT 18/16 A2999 RMK A01 T01790158  RH  087%=      5-min Rain = 0
KHA2 252356Z 17008KT 18/16 A30 RMK A01 T01790158  RH  087%=      5-min Rain = 0
KHA2 252357Z 18012KT 18/16 A3001 RMK A01 T01780157  RH  087%=      5-min Rain = 0
KHA2 252358Z 18011KT 18/16 A3001 RMK A01 T01770155  RH  087%=      5-min Rain = 0
KHA2 252359Z 19010KT 18/15 A3001 RMK A01 T01770154  RH  086%=      5-min Rain = 0
KHA2 260000Z 19014KT 18/15 A3001 RMK A01 T01770154  RH  087%=      5-min Rain = 0
KHA2 260001Z 19015KT 18/15 A3001 RMK A01 T01770151  RH  085%=      5-min Rain = 0
KHA2 260002Z 19013KT 18/15 A3001 RMK A01 T01770150  RH  084%=      5-min Rain = 0
KHA2 260003Z 18013KT 18/15 A3001 RMK A01 T01770151  RH  085%=      5-min Rain = 0
KHA2 260004Z 18014KT 18/15 A3001 RMK A01 T01770153  RH  086%=      5-min Rain = 0
KHA2 260005Z 18016G22KT 18/16 A3001 RMK A01 T01770155  RH  087%=      5-min Rain = 0
KHA2 260006Z 16017KT 18/16 A30 RMK A01 T01770157  RH  088%=      5-min Rain = 0
KHA2 260007Z 17017KT 18/16 A30 RMK A01 T01780159  RH  089%=      5-min Rain = 0
KHA2 260008Z 17015KT 18/16 A2999 RMK A01 T01780160  RH  089%=      5-min Rain = 0
KHA2 260009Z 16016KT 18/16 A2999 RMK A01 T01770161  RH  090%=      5-min Rain = 0
KHA2 260010Z 16017KT 18/16 A2999 RMK A01 T01770162  RH  091%=      5-min Rain = 0
KHA2 260011Z 16015KT 18/16 A2999 RMK A01 T01770163  RH  091%=      5-min Rain = 0
KHA2 260012Z 16015KT 18/16 A2999 RMK A01 T01770163  RH  091%=      5-min Rain = 0
KHA2 260013Z 16013KT 18/16 A2998 RMK A01 T01780162  RH  090%=      5-min Rain = 0
KHA2 260014Z 16012KT 18/16 A2998 RMK A01 T01780161  RH  090%=      5-min Rain = 0
KHA2 260015Z 16013KT 18/16 A2997 RMK A01 T01780160  RH  089%=      5-min Rain = 0
KHA2 260016Z 15014KT 18/16 A2997 RMK A01 T01790159  RH  088%=      5-min Rain = 0
KHA2 260017Z 16013KT 18/16 A2997 RMK A01 T01800159  RH  087%=      5-min Rain = 0
KHA2 260018Z 17015KT 18/16 A2997 RMK A01 T01810158  RH  086%=      5-min Rain = 0
KHA2 260019Z 16014KT 18/16 A2996 RMK A01 T01830158  RH  086%=      5-min Rain = 0
KHA2 260020Z 16012KT 18/16 A2996 RMK A01 T01840158  RH  085%=      5-min Rain = 0
KHA2 260021Z 16013KT 18/16 A2996 RMK A01 T01840158  RH  085%=      5-min Rain = 0
KHA2 260022Z 16013KT 19/16 A2996 RMK A01 T01850158  RH  085%=      5-min Rain = 0
KHA2 260023Z 15011KT 19/16 A2995 RMK A01 T01850158  RH  084%=      5-min Rain = 0
KHA2 260024Z 15010KT 19/16 A2995 RMK A01 T01860159  RH  084%=      5-min Rain = 0
KHA2 260025Z 16011KT 19/16 A2996 RMK A01 T01870159  RH  084%=      5-min Rain = 0
KHA2 260026Z 16011KT 19/16 A2996 RMK A01 T01880161  RH  084%=      5-min Rain = 0
KHA2 260027Z 15009KT 19/16 A2996 RMK A01 T01890163  RH  085%=      5-min Rain = 0
KHA2 260028Z 15009KT 19/16 A2996 RMK A01 T01900163  RH  084%=      5-min Rain = 0
KHA2 260029Z 15012KT 19/16 A2995 RMK A01 T01920164  RH  084%=      5-min Rain = 0
KHA2 260030Z 15011KT 19/16 A2995 RMK A01 T01930162  RH  082%=      5-min Rain = 0
KHA2 260031Z 15010KT 19/16 A2995 RMK A01 T01940163  RH  082%=      5-min Rain = 0
KHA2 260032Z 16008KT 19/16 A2994 RMK A01 T01940162  RH  082%=      5-min Rain = 0
KHA2 260033Z 15006KT 20/16 A2994 RMK A01 T01950162  RH  081%=      5-min Rain = 0
KHA2 260034Z 15004KT 20/16 A2994 RMK A01 T01960162  RH  081%=      5-min Rain = 0
KHA2 260035Z 16004KT 20/16 A2994 RMK A01 T01970163  RH  081%=      5-min Rain = 0
KHA2 260036Z 17004KT 20/16 A2994 RMK A01 T01970163  RH  080%=      5-min Rain = 0
KHA2 260037Z 17003KT 20/16 A2994 RMK A01 T01980162  RH  080%=      5-min Rain = 0
KHA2 260038Z 18004KT 20/16 A2994 RMK A01 T01990162  RH  079%=      5-min Rain = 0
KHA2 260039Z 18005KT 20/16 A2994 RMK A01 T01990163  RH  079%=      5-min Rain = 0
KHA2 260040Z 18007KT 20/16 A2995 RMK A01 T01990163  RH  080%=      5-min Rain = 0
KHA2 260041Z 18009KT 20/16 A2995 RMK A01 T01990163  RH  080%=      5-min Rain = 0
KHA2 260042Z 18007KT 20/16 A2995 RMK A01 T01990164  RH  080%=      5-min Rain = 0
KHA2 260043Z 18009KT 20/17 A2995 RMK A01 T01990165  RH  081%=      5-min Rain = 0
KHA2 260044Z 18013G18KT 20/17 A2996 RMK A01 T01990165  RH  080%=      5-min Rain = 0
KHA2 260045Z 18014KT 20/16 A2996 RMK A01 T02000160  RH  077%=      5-min Rain = 0
KHA2 260046Z 18015KT 20/16 A2996 RMK A01 T02020162  RH  078%=      5-min Rain = 0
KHA2 260047Z 18016KT 20/16 A2995 RMK A01 T02020161  RH  077%=      5-min Rain = 0
KHA2 260048Z 18014KT 20/16 A2995 RMK A01 T02000160  RH  078%=      5-min Rain = 0
KHA2 260049Z 18011KT 20/16 A2995 RMK A01 T01990162  RH  079%=      5-min Rain = 0
KHA2 260050Z 18012KT 20/16 A2995 RMK A01 T01990163  RH  079%=      5-min Rain = 0
KHA2 260051Z 19011KT 20/16 A2995 RMK A01 T01990164  RH  080%=      5-min Rain = 0
KHA2 260052Z 19010KT 20/17 A2995 RMK A01 T01990166  RH  081%=      5-min Rain = 0
KHA2 260053Z 18008KT 20/17 A2995 RMK A01 T01990167  RH  082%=      5-min Rain = 0
KHA2 260054Z 18011G16KT 20/17 A2995 RMK A01 T01980167  RH  082%=      5-min Rain = 0
KHA2 260055Z 17011KT 20/17 A2995 RMK A01 T01980166  RH  082%=      5-min Rain = 0
KHA2 260056Z 17014KT 20/17 A2995 RMK A01 T01980167  RH  082%=      5-min Rain = 0
KHA2 260057Z 16014KT 20/17 A2995 RMK A01 T01970166  RH  082%=      5-min Rain = 0
KHA2 260058Z 17013G18KT 20/17 A2995 RMK A01 T01960167  RH  083%=      5-min Rain = 0
KHA2 260059Z 17015KT 20/17 A2995 RMK A01 T01960165  RH  082%=      5-min Rain = 0
KHA2 260100Z 17015KT 20/17 A2995 RMK A01 T01960165  RH  083%=      5-min Rain = 0
KHA2 260101Z 16016KT 20/16 A2995 RMK A01 T01950164  RH  082%=      5-min Rain = 0
KHA2 260102Z 17015KT 20/16 A2995 RMK A01 T01950164  RH  082%=      5-min Rain = 0
KHA2 260103Z 17014KT 19/17 A2995 RMK A01 T01940165  RH  083%=      5-min Rain = 0
KHA2 260104Z 17013KT 19/17 A2996 RMK A01 T01940165  RH  084%=      5-min Rain = 0
KHA2 260105Z 17013KT 19/17 A2996 RMK A01 T01940166  RH  084%=      5-min Rain = 0
KHA2 260106Z 17012KT 19/17 A2996 RMK A01 T01930166  RH  084%=      5-min Rain = 0
KHA2 260107Z 17012KT 19/17 A2996 RMK A01 T01930165  RH  084%=      5-min Rain = 0
KHA2 260108Z 17013KT 19/16 A2996 RMK A01 T01930164  RH  084%=      5-min Rain = 0
KHA2 260109Z 17012KT 19/16 A2996 RMK A01 T01930164  RH  083%=      5-min Rain = 0
KHA2 260110Z 17011KT 19/16 A2996 RMK A01 T01930164  RH  083%=      5-min Rain = 0
KHA2 260111Z 17011KT 19/16 A2996 RMK A01 T01920164  RH  084%=      5-min Rain = 0
KHA2 260112Z 17010KT 19/16 A2996 RMK A01 T01920164  RH  084%=      5-min Rain = 0
KHA2 260113Z 17010KT 19/17 A2996 RMK A01 T01910165  RH  085%=      5-min Rain = 0
KHA2 260114Z 17010KT 19/16 A2996 RMK A01 T01910164  RH  085%=      5-min Rain = 0
KHA2 260115Z 17010KT 19/17 A2996 RMK A01 T01910165  RH  085%=      5-min Rain = 0
KHA2 260116Z 17010KT 19/17 A2996 RMK A01 T01900165  RH  085%=      5-min Rain = 0
KHA2 260117Z 17009KT 19/17 A2996 RMK A01 T01900165  RH  085%=      5-min Rain = 0
KHA2 260118Z 17009KT 19/17 A2996 RMK A01 T01900165  RH  086%=      5-min Rain = 0
KHA2 260119Z 17010KT 19/17 A2996 RMK A01 T01900166  RH  086%=      5-min Rain = 0
KHA2 260120Z 18008KT 19/17 A2996 RMK A01 T01890166  RH  086%=      5-min Rain = 0
KHA2 260121Z 17008KT 19/17 A2996 RMK A01 T01890167  RH  087%=      5-min Rain = 0
KHA2 260122Z 17008KT 19/17 A2996 RMK A01 T01880166  RH  087%=      5-min Rain = 0
KHA2 260123Z 17008KT 19/17 A2996 RMK A01 T01880167  RH  087%=      5-min Rain = 0
KHA2 260124Z 17008KT 19/17 A2996 RMK A01 T01880167  RH  087%=      5-min Rain = 0
KHA2 260125Z 17008KT 19/17 A2996 RMK A01 T01880167  RH  087%=      5-min Rain = 0
KHA2 260126Z 16008KT 19/17 A2996 RMK A01 T01870166  RH  088%=      5-min Rain = 0
KHA2 260127Z 15009KT 19/17 A2996 RMK A01 T01880167  RH  088%=      5-min Rain = 0
KHA2 260128Z 15009KT 19/17 A2996 RMK A01 T01870167  RH  088%=      5-min Rain = 0
KHA2 260129Z 15009KT 19/17 A2996 RMK A01 T01870166  RH  088%=      5-min Rain = 0
KHA2 260130Z 15008KT 19/17 A2996 RMK A01 T01870167  RH  088%=      5-min Rain = 0
KHA2 260131Z 15008KT 19/17 A2996 RMK A01 T01870166  RH  088%=      5-min Rain = 0
KHA2 260132Z 15008KT 19/17 A2996 RMK A01 T01870166  RH  088%=      5-min Rain = 0
KHA2 260133Z 15008KT 19/17 A2996 RMK A01 T01870166  RH  088%=      5-min Rain = 0
KHA2 260134Z 15009KT 19/17 A2996 RMK A01 T01860166  RH  088%=      5-min Rain = 0
KHA2 260135Z 14009KT 19/17 A2996 RMK A01 T01860166  RH  088%=      5-min Rain = 0
KHA2 260136Z 14009KT 19/17 A2996 RMK A01 T01860166  RH  088%=      5-min Rain = 0
KHA2 260137Z 14010KT 19/17 A2996 RMK A01 T01850167  RH  089%=      5-min Rain = 0
KHA2 260138Z 14010KT 19/17 A2996 RMK A01 T01850167  RH  089%=      5-min Rain = 0
KHA2 260139Z 14009KT 18/17 A2996 RMK A01 T01840167  RH  090%=      5-min Rain = 0
KHA2 260140Z 14009KT 18/17 A2996 RMK A01 T01840167  RH  090%=      5-min Rain = 0
KHA2 260141Z 13010KT 18/17 A2996 RMK A01 T01840168  RH  090%=      5-min Rain = 0
KHA2 260142Z 13011KT 18/17 A2996 RMK A01 T01830168  RH  091%=      5-min Rain = 0
KHA2 260143Z 14010KT 18/17 A2996 RMK A01 T01830168  RH  091%=      5-min Rain = 0
KHA2 260144Z 14010KT 18/17 A2996 RMK A01 T01830169  RH  091%=      5-min Rain = 0
KHA2 260145Z 14009KT 18/17 A2996 RMK A01 T01820168  RH  091%=      5-min Rain = 0
KHA2 260146Z 14010KT 18/17 A2996 RMK A01 T01820169  RH  092%=      5-min Rain = 0
KHA2 260147Z 14009KT 18/17 A2996 RMK A01 T01810168  RH  092%=      5-min Rain = 0
KHA2 260148Z 14009KT 18/17 A2996 RMK A01 T01810168  RH  092%=      5-min Rain = 0
KHA2 260149Z 14009KT 18/17 A2996 RMK A01 T01810168  RH  092%=      5-min Rain = 0
KHA2 260150Z 14009KT 18/17 A2996 RMK A01 T01800168  RH  092%=      5-min Rain = 0
KHA2 260151Z 14009KT 18/17 A2996 RMK A01 T01800168  RH  092%=      5-min Rain = 0
KHA2 260152Z 14009KT 18/17 A2996 RMK A01 T01800167  RH  092%=      5-min Rain = 0
KHA2 260153Z 14009KT 18/17 A2996 RMK A01 T01800167  RH  092%=      5-min Rain = 0
KHA2 260154Z 14009KT 18/17 A2996 RMK A01 T01790167  RH  092%=      5-min Rain = 0
KHA2 260155Z 14009KT 18/17 A2996 RMK A01 T01790167  RH  092%=      5-min Rain = 0
KHA2 260156Z 14009KT 18/17 A2996 RMK A01 T01790166  RH  092%=      5-min Rain = 0
KHA2 260157Z 14009KT 18/17 A2996 RMK A01 T01780166  RH  092%=      5-min Rain = 0
KHA2 260158Z 14008KT 18/17 A2996 RMK A01 T01780165  RH  092%=      5-min Rain = 0
KHA2 260159Z 14009KT 18/17 A2996 RMK A01 T01780165  RH  092%=      5-min Rain = 0
KHA2 260200Z 14009KT 18/17 A2996 RMK A01 T01770165  RH  092%=      5-min Rain = 0
KHA2 260201Z 14009KT 18/17 A2996 RMK A01 T01770165  RH  092%=      5-min Rain = 0
KHA2 260202Z 14008KT 18/17 A2996 RMK A01 T01770165  RH  093%=      5-min Rain = 0
KHA2 260203Z 14008KT 18/16 A2996 RMK A01 T01760164  RH  093%=      5-min Rain = 0
KHA2 260204Z 14008KT 18/16 A2996 RMK A01 T01760164  RH  093%=      5-min Rain = 0
KHA2 260205Z 14008KT 18/16 A2996 RMK A01 T01750164  RH  093%=      5-min Rain = 0
KHA2 260206Z 14008KT 18/16 A2995 RMK A01 T01750163  RH  093%=      5-min Rain = 0
KHA2 260207Z 14008KT 18/16 A2995 RMK A01 T01750163  RH  093%=      5-min Rain = 0
KHA2 260208Z 14008KT 18/16 A2995 RMK A01 T01750163  RH  093%=      5-min Rain = 0
KHA2 260209Z 14008KT 17/16 A2996 RMK A01 T01740163  RH  093%=      5-min Rain = 0
KHA2 260210Z 14008KT 17/16 A2996 RMK A01 T01740163  RH  093%=      5-min Rain = 0
KHA2 260211Z 14008KT 17/16 A2996 RMK A01 T01730163  RH  093%=      5-min Rain = 0
KHA2 260212Z 14008KT 17/16 A2995 RMK A01 T01730162  RH  093%=      5-min Rain = 0
KHA2 260213Z 14008KT 17/16 A2995 RMK A01 T01730162  RH  094%=      5-min Rain = 0
KHA2 260214Z 14008KT 17/16 A2995 RMK A01 T01720162  RH  094%=      5-min Rain = 0
KHA2 260215Z 14008KT 17/16 A2995 RMK A01 T01720162  RH  094%=      5-min Rain = 0
KHA2 260216Z 14008KT 17/16 A2995 RMK A01 T01710162  RH  094%=      5-min Rain = 0
KHA2 260217Z 14008KT 17/16 A2995 RMK A01 T01710162  RH  094%=      5-min Rain = 0
KHA2 260218Z 14008KT 17/16 A2995 RMK A01 T01710162  RH  094%=      5-min Rain = 0
KHA2 260219Z 14008KT 17/16 A2995 RMK A01 T01700161  RH  094%=      5-min Rain = 0
KHA2 260220Z 15008KT 17/16 A2995 RMK A01 T01700161  RH  095%=      5-min Rain = 0
KHA2 260221Z 15008KT 17/16 A2995 RMK A01 T01700161  RH  095%=      5-min Rain = 0
KHA2 260222Z 15008KT 17/16 A2995 RMK A01 T01690161  RH  095%=      5-min Rain = 0
KHA2 260223Z 14008KT 17/16 A2995 RMK A01 T01690161  RH  095%=      5-min Rain = 0
KHA2 260224Z 14008KT 17/16 A2995 RMK A01 T01690161  RH  095%=      5-min Rain = 0
KHA2 260225Z 14008KT 17/16 A2995 RMK A01 T01690161  RH  095%=      5-min Rain = 0
KHA2 260226Z 15008KT 17/16 A2995 RMK A01 T01690161  RH  095%=      5-min Rain = 0
KHA2 260227Z 14008KT 17/16 A2995 RMK A01 T01690161  RH  095%=      5-min Rain = 0
KHA2 260228Z 14008KT 17/16 A2995 RMK A01 T01690161  RH  095%=      5-min Rain = 0
KHA2 260229Z 14008KT 17/16 A2995 RMK A01 T01690161  RH  095%=      5-min Rain = 0
KHA2 260230Z 14007KT 17/16 A2994 RMK A01 T01680161  RH  095%=      5-min Rain = 0
KHA2 260231Z 14008KT 17/16 A2995 RMK A01 T01690161  RH  095%=      5-min Rain = 0
KHA2 260232Z 15007KT 17/16 A2995 RMK A01 T01680161  RH  095%=      5-min Rain = 0
KHA2 260233Z 15007KT 17/16 A2995 RMK A01 T01680160  RH  095%=      5-min Rain = 0
KHA2 260234Z 15007KT 17/16 A2995 RMK A01 T01680160  RH  095%=      5-min Rain = 0
KHA2 260235Z 15007KT 17/16 A2995 RMK A01 T01680160  RH  095%=      5-min Rain = 0
KHA2 260236Z 15007KT 17/16 A2995 RMK A01 T01680160  RH  095%=      5-min Rain = 0
KHA2 260237Z 15007KT 17/16 A2995 RMK A01 T01680160  RH  095%=      5-min Rain = 0
KHA2 260238Z 15007KT 17/16 A2995 RMK A01 T01670159  RH  095%=      5-min Rain = 0
KHA2 260239Z 15007KT 17/16 A2995 RMK A01 T01670159  RH  095%=      5-min Rain = 0
KHA2 260240Z 15007KT 17/16 A2995 RMK A01 T01670159  RH  095%=      5-min Rain = 0
KHA2 260241Z 15007KT 17/16 A2995 RMK A01 T01670159  RH  095%=      5-min Rain = 0
KHA2 260242Z 15007KT 17/16 A2995 RMK A01 T01670158  RH  095%=      5-min Rain = 0
KHA2 260243Z 15007KT 17/16 A2995 RMK A01 T01660158  RH  095%=      5-min Rain = 0
KHA2 260244Z 15007KT 17/16 A2995 RMK A01 T01660158  RH  095%=      5-min Rain = 0
KHA2 260245Z 15007KT 17/16 A2995 RMK A01 T01660157  RH  095%=      5-min Rain = 0
KHA2 260246Z 15007KT 17/16 A2995 RMK A01 T01660157  RH  095%=      5-min Rain = 0
KHA2 260247Z 15007KT 17/16 A2995 RMK A01 T01650157  RH  095%=      5-min Rain = 0
KHA2 260248Z 15007KT 17/16 A2995 RMK A01 T01650157  RH  095%=      5-min Rain = 0
KHA2 260249Z 16007KT 17/16 A2995 RMK A01 T01650157  RH  095%=      5-min Rain = 0
KHA2 260250Z 16007KT 17/16 A2995 RMK A01 T01650157  RH  095%=      5-min Rain = 0
KHA2 260251Z 16008KT 17/16 A2995 RMK A01 T01650157  RH  095%=      5-min Rain = 0
KHA2 260252Z 16008KT 17/16 A2995 RMK A01 T01650156  RH  095%=      5-min Rain = 0
KHA2 260253Z 16008KT 17/16 A2995 RMK A01 T01650156  RH  095%=      5-min Rain = 0
KHA2 260254Z 16008KT 17/16 A2995 RMK A01 T01650156  RH  094%=      5-min Rain = 0
KHA2 260255Z 16008KT 17/16 A2995 RMK A01 T01650156  RH  094%=      5-min Rain = 0
KHA2 260256Z 16007KT 17/16 A2995 RMK A01 T01650156  RH  094%=      5-min Rain = 0
KHA2 260257Z 17007KT 17/16 A2995 RMK A01 T01650156  RH  094%=      5-min Rain = 0
KHA2 260258Z 16008KT 16/16 A2995 RMK A01 T01640155  RH  094%=      5-min Rain = 0
KHA2 260259Z 17007KT 16/16 A2995 RMK A01 T01640155  RH  094%=      5-min Rain = 0
KHA2 260300Z 17007KT 16/16 A2995 RMK A01 T01640155  RH  094%=      5-min Rain = 0
KHA2 260301Z 17007KT 16/16 A2995 RMK A01 T01640155  RH  094%=      5-min Rain = 0
KHA2 260302Z 17007KT 16/16 A2996 RMK A01 T01640155  RH  094%=      5-min Rain = 0
KHA2 260303Z 17007KT 16/16 A2995 RMK A01 T01640155  RH  094%=      5-min Rain = 0
KHA2 260304Z 17007KT 16/16 A2995 RMK A01 T01640155  RH  094%=      5-min Rain = 0
KHA2 260305Z 17007KT 16/16 A2996 RMK A01 T01640155  RH  094%=      5-min Rain = 0
KHA2 260306Z 17007KT 17/16 A2996 RMK A01 T01650155  RH  094%=      5-min Rain = 0
KHA2 260307Z 17008KT 17/16 A2996 RMK A01 T01650156  RH  094%=      5-min Rain = 0
KHA2 260308Z 16008KT 17/16 A2996 RMK A01 T01660156  RH  094%=      5-min Rain = 0
KHA2 260309Z 16009KT 17/16 A2996 RMK A01 T01670156  RH  094%=      5-min Rain = 0
KHA2 260310Z 16009KT 17/16 A2996 RMK A01 T01680157  RH  094%=      5-min Rain = 0
KHA2 260311Z 16009KT 17/16 A2996 RMK A01 T01680157  RH  093%=      5-min Rain = 0
KHA2 260312Z 16009KT 17/16 A2996 RMK A01 T01690157  RH  093%=      5-min Rain = 0
KHA2 260313Z 16009KT 17/16 A2996 RMK A01 T01690158  RH  093%=      5-min Rain = 0
KHA2 260314Z 16010KT 17/16 A2996 RMK A01 T01700158  RH  093%=      5-min Rain = 0
KHA2 260315Z 16009KT 17/16 A2996 RMK A01 T01700158  RH  093%=      5-min Rain = 0
KHA2 260316Z 16010KT 17/16 A2996 RMK A01 T01700158  RH  093%=      5-min Rain = 0
KHA2 260317Z 16009KT 17/16 A2996 RMK A01 T01710159  RH  093%=      5-min Rain = 0
KHA2 260318Z 16010KT 17/16 A2996 RMK A01 T01710159  RH  093%=      5-min Rain = 0
KHA2 260319Z 17010KT 17/16 A2996 RMK A01 T01710159  RH  093%=      5-min Rain = 0
KHA2 260320Z 16010KT 17/16 A2996 RMK A01 T01700159  RH  093%=      5-min Rain = 0
KHA2 260321Z 16009KT 17/16 A2996 RMK A01 T01700159  RH  093%=      5-min Rain = 0
KHA2 260322Z 17010KT 17/16 A2996 RMK A01 T01700159  RH  093%=      5-min Rain = 0
KHA2 260323Z 17010KT 17/16 A2996 RMK A01 T01700159  RH  093%=      5-min Rain = 0
KHA2 260324Z 17010KT 17/16 A2996 RMK A01 T01700159  RH  093%=      5-min Rain = 0
KHA2 260325Z 17010KT 17/16 A2996 RMK A01 T01700159  RH  094%=      5-min Rain = 0
KHA2 260326Z 17011KT 17/16 A2996 RMK A01 T01700160  RH  094%=      5-min Rain = 0
KHA2 260327Z 17009KT 17/16 A2996 RMK A01 T01700161  RH  094%=      5-min Rain = 0
KHA2 260328Z 17010KT 17/16 A2996 RMK A01 T01700160  RH  094%=      5-min Rain = 0
KHA2 260329Z 17011KT 17/16 A2996 RMK A01 T01700161  RH  094%=      5-min Rain = 0
KHA2 260330Z 16010KT 17/16 A2996 RMK A01 T01710162  RH  094%=      5-min Rain = 0
KHA2 260331Z 17010KT 17/16 A2996 RMK A01 T01710161  RH  094%=      5-min Rain = 0
KHA2 260332Z 17010KT 17/16 A2996 RMK A01 T01710162  RH  094%=      5-min Rain = 0
KHA2 260333Z 17010KT 17/16 A2996 RMK A01 T01710162  RH  094%=      5-min Rain = 0
KHA2 260334Z 17010KT 17/16 A2996 RMK A01 T01710163  RH  095%=      5-min Rain = 0
KHA2 260335Z 17009KT 17/16 A2996 RMK A01 T01720163  RH  095%=      5-min Rain = 0
KHA2 260336Z 17010KT 17/16 A2996 RMK A01 T01720163  RH  095%=      5-min Rain = 0
KHA2 260337Z 17009KT 17/16 A2996 RMK A01 T01720164  RH  095%=      5-min Rain = 0
KHA2 260338Z 17009KT 17/16 A2996 RMK A01 T01720164  RH  095%=      5-min Rain = 0
KHA2 260339Z 17010KT 17/16 A2996 RMK A01 T01720164  RH  095%=      5-min Rain = 0
KHA2 260340Z 17010KT 17/16 A2996 RMK A01 T01720164  RH  095%=      5-min Rain = 0
KHA2 260341Z 17010KT 17/16 A2996 RMK A01 T01720164  RH  095%=      5-min Rain = 0
KHA2 260342Z 17010KT 17/16 A2996 RMK A01 T01720164  RH  095%=      5-min Rain = 0
KHA2 260343Z 17010KT 17/16 A2996 RMK A01 T01720164  RH  095%=      5-min Rain = 0
KHA2 260344Z 17010KT 17/17 A2996 RMK A01 T01720165  RH  095%=      5-min Rain = 0
KHA2 260345Z 17010KT 17/17 A2996 RMK A01 T01730165  RH  095%=      5-min Rain = 0
KHA2 260346Z 16010KT 17/17 A2996 RMK A01 T01730166  RH  096%=      5-min Rain = 0
KHA2 260347Z 17011KT 17/17 A2996 RMK A01 T01730166  RH  096%=      5-min Rain = 0
KHA2 260348Z 17010KT 17/17 A2996 RMK A01 T01730166  RH  096%=      5-min Rain = 0
KHA2 260349Z 17010KT 17/17 A2996 RMK A01 T01740167  RH  096%=      5-min Rain = 0
KHA2 260350Z 17011KT 17/17 A2996 RMK A01 T01740167  RH  096%=      5-min Rain = 0
KHA2 260351Z 17011KT 18/17 A2996 RMK A01 T01750168  RH  096%=      5-min Rain = 0
KHA2 260352Z 17011KT 18/17 A2996 RMK A01 T01750168  RH  096%=      5-min Rain = 0
KHA2 260353Z 17010KT 18/17 A2996 RMK A01 T01760169  RH  096%=      5-min Rain = 0
KHA2 260354Z 17010KT 18/17 A2996 RMK A01 T01760169  RH  096%=      5-min Rain = 0
KHA2 260355Z 17011KT 18/17 A2996 RMK A01 T01770169  RH  096%=      5-min Rain = 0
KHA2 260356Z 17012KT 18/17 A2996 RMK A01 T01770170  RH  096%=      5-min Rain = 0
KHA2 260357Z 17010KT 18/17 A2996 RMK A01 T01780171  RH  096%=      5-min Rain = 0
KHA2 260358Z 17012KT 18/17 A2996 RMK A01 T01780171  RH  095%=      5-min Rain = 0
KHA2 260359Z 17011KT 18/17 A2996 RMK A01 T01790172  RH  096%=      5-min Rain = 0
KHA2 260400Z 17011KT 18/17 A2996 RMK A01 T01790172  RH  095%=      5-min Rain = 0
KHA2 260401Z 17011KT 18/17 A2996 RMK A01 T01790172  RH  095%=      5-min Rain = 0
KHA2 260402Z 17011KT 18/17 A2996 RMK A01 T01800172  RH  095%=      5-min Rain = 0
KHA2 260403Z 17012KT 18/17 A2996 RMK A01 T01800172  RH  095%=      5-min Rain = 0
KHA2 260404Z 16010KT 18/17 A2996 RMK A01 T01800173  RH  095%=      5-min Rain = 0
KHA2 260405Z 17011KT 18/17 A2996 RMK A01 T01810173  RH  095%=      5-min Rain = 0
KHA2 260406Z 17012KT 18/17 A2996 RMK A01 T01810173  RH  095%=      5-min Rain = 0
KHA2 260407Z 17010KT 18/17 A2996 RMK A01 T01810173  RH  095%=      5-min Rain = 0
KHA2 260408Z 16010KT 18/17 A2996 RMK A01 T01810173  RH  095%=      5-min Rain = 0
KHA2 260409Z 17010KT 18/17 A2996 RMK A01 T01810174  RH  095%=      5-min Rain = 0
KHA2 260410Z 16011KT 18/17 A2997 RMK A01 T01810173  RH  095%=      5-min Rain = 0
KHA2 260411Z 16011KT 18/17 A2997 RMK A01 T01810174  RH  095%=      5-min Rain = 0
KHA2 260412Z 17010KT 18/17 A2997 RMK A01 T01810174  RH  095%=      5-min Rain = 0
KHA2 260413Z 17010KT 18/17 A2997 RMK A01 T01810174  RH  095%=      5-min Rain = 0
KHA2 260414Z 17010KT 18/17 A2997 RMK A01 T01810174  RH  095%=      5-min Rain = 0
KHA2 260415Z 17010KT 18/17 A2997 RMK A01 T01810174  RH  095%=      5-min Rain = 0
KHA2 260416Z 17010KT 18/17 A2997 RMK A01 T01810174  RH  095%=      5-min Rain = 0
KHA2 260417Z 17010KT 18/17 A2997 RMK A01 T01810174  RH  096%=      5-min Rain = 0
KHA2 260418Z 18010KT 18/17 A2997 RMK A01 T01810174  RH  096%=      5-min Rain = 0
KHA2 260419Z 17010KT 18/17 A2997 RMK A01 T01810174  RH  096%=      5-min Rain = 0
KHA2 260420Z 17011KT 18/17 A2997 RMK A01 T01810173  RH  095%=      5-min Rain = 0
KHA2 260421Z 17010KT 18/17 A2997 RMK A01 T01810174  RH  096%=      5-min Rain = 0
KHA2 260422Z 18010KT 18/17 A2997 RMK A01 T01810174  RH  095%=      5-min Rain = 0
KHA2 260423Z 18010KT 18/17 A2997 RMK A01 T01810173  RH  095%=      5-min Rain = 0
KHA2 260424Z 18011KT 18/17 A2997 RMK A01 T01810174  RH  096%=      5-min Rain = 0
KHA2 260425Z 18011KT 18/17 A2997 RMK A01 T01810174  RH  096%=      5-min Rain = 0
KHA2 260426Z 18010KT 18/17 A2997 RMK A01 T01810174  RH  096%=      5-min Rain = 0
KHA2 260427Z 17010KT 18/17 A2997 RMK A01 T01810174  RH  096%=      5-min Rain = 0
KHA2 260428Z 17011KT 18/17 A2997 RMK A01 T01810174  RH  096%=      5-min Rain = 0
KHA2 260429Z 17011KT 18/17 A2997 RMK A01 T01810174  RH  095%=      5-min Rain = 0
KHA2 260430Z 17011KT 18/17 A2997 RMK A01 T01810173  RH  095%=      5-min Rain = 0
KHA2 260431Z 17011KT 18/17 A2997 RMK A01 T01810174  RH  096%=      5-min Rain = 0
KHA2 260432Z 17012KT 18/17 A2997 RMK A01 T01810174  RH  096%=      5-min Rain = 0
KHA2 260433Z 17011KT 18/17 A2997 RMK A01 T01810174  RH  096%=      5-min Rain = 0
KHA2 260434Z 18011KT 18/18 A2997 RMK A01 T01810175  RH  096%=      5-min Rain = 0
KHA2 260435Z 18011KT 18/18 A2997 RMK A01 T01820175  RH  096%=      5-min Rain = 0
KHA2 260436Z 18010KT 18/18 A2997 RMK A01 T01820175  RH  096%=      5-min Rain = 0
KHA2 260437Z 18010KT 18/18 A2997 RMK A01 T01820175  RH  096%=      5-min Rain = 0
KHA2 260438Z 18010KT 18/18 A2998 RMK A01 T01830175  RH  096%=      5-min Rain = 0
KHA2 260439Z 18011KT 18/18 A2998 RMK A01 T01830175  RH  095%=      5-min Rain = 0
KHA2 260440Z 18011KT 18/18 A2998 RMK A01 T01830176  RH  095%=      5-min Rain = 0
KHA2 260441Z 18010KT 18/18 A2998 RMK A01 T01830175  RH  095%=      5-min Rain = 0
KHA2 260442Z 17010KT 18/18 A2998 RMK A01 T01830175  RH  095%=      5-min Rain = 0
KHA2 260443Z 17010KT 18/18 A2998 RMK A01 T01830175  RH  095%=      5-min Rain = 0
KHA2 260444Z 17010KT 18/18 A2997 RMK A01 T01830175  RH  095%=      5-min Rain = 0
KHA2 260445Z 17010KT 18/18 A2997 RMK A01 T01830175  RH  095%=      5-min Rain = 0
KHA2 260446Z 17011KT 18/18 A2997 RMK A01 T01830175  RH  095%=      5-min Rain = 0
KHA2 260447Z 18010KT 18/18 A2998 RMK A01 T01830176  RH  095%=      5-min Rain = 0
KHA2 260448Z 17009KT 18/18 A2998 RMK A01 T01830176  RH  095%=      5-min Rain = 0
KHA2 260449Z 18009KT 18/18 A2998 RMK A01 T01830176  RH  095%=      5-min Rain = 0
KHA2 260450Z 18009KT 18/18 A2998 RMK A01 T01830176  RH  095%=      5-min Rain = 0
KHA2 260451Z 18008KT 18/18 A2998 RMK A01 T01830175  RH  095%=      5-min Rain = 0
KHA2 260452Z 18009KT 18/18 A2998 RMK A01 T01830175  RH  095%=      5-min Rain = 0
KHA2 260453Z 17008KT 18/18 A2998 RMK A01 T01830175  RH  095%=      5-min Rain = 0
KHA2 260454Z 17008KT 18/18 A2998 RMK A01 T01830175  RH  095%=      5-min Rain = 0
KHA2 260455Z 17009KT 18/18 A2998 RMK A01 T01830176  RH  096%=      5-min Rain = 0
KHA2 260456Z 17009KT 18/18 A2998 RMK A01 T01820175  RH  096%=      5-min Rain = 0
KHA2 260457Z 17008KT 18/18 A2998 RMK A01 T01820175  RH  096%=      5-min Rain = 0
KHA2 260458Z 17009KT 18/18 A2998 RMK A01 T01820175  RH  096%=      5-min Rain = 0
KHA2 260459Z 17010KT 18/18 A2998 RMK A01 T01820175  RH  096%=      5-min Rain = 0

Page generated in 0.1251 seconds.